Wetterdaten: Donnerstag, 22.05.2014
Datum Zeit Temp. Aussen +5cm Feuchte Auss Luftdruck Regen Sonnenschein Regendauer UV Solar Windben
22.05.2014 00:00 22,6 C 20,0 C 61 % 1003,3 hPa 0,0 l/m 0 min 0 min 0,0 UV-I 0 W/m 20,6 km/h (4 Bft)
22.05.2014 00:02 22,6 C 20,0 C 61 % 1003,4 hPa 0,0 l/m 0 min 0 min 0,0 UV-I 0 W/m 7,7 km/h (2 Bft)
22.05.2014 00:06 22,6 C 20,0 C 61 % 1003,3 hPa 0,0 l/m 0 min 0 min 0,0 UV-I 0 W/m 15,4 km/h (3 Bft)
22.05.2014 00:08 22,6 C 20,0 C 61 % 1003,2 hPa 0,0 l/m 0 min 0 min 0,0 UV-I 0 W/m 7,7 km/h (2 Bft)
22.05.2014 00:10 22,5 C 20,0 C 62 % 1003,1 hPa 0,0 l/m 0 min 0 min 0,0 UV-I 0 W/m 2,6 km/h (1 Bft)
22.05.2014 00:12 22,4 C 20,0 C 62 % 1003,1 hPa 0,0 l/m 0 min 0 min 0,0 UV-I 0 W/m 18,0 km/h (3 Bft)
22.05.2014 00:14 22,4 C 20,0 C 62 % 1003,0 hPa 0,0 l/m 0 min 0 min 0,0 UV-I 0 W/m 18,0 km/h (3 Bft)
22.05.2014 00:16 22,3 C 20,0 C 62 % 1003,1 hPa 0,0 l/m 0 min 0 min 0,0 UV-I 0 W/m 18,0 km/h (3 Bft)
22.05.2014 00:18 22,3 C 20,0 C 62 % 1003,0 hPa 0,0 l/m 0 min 0 min 0,0 UV-I 0 W/m 7,7 km/h (2 Bft)
22.05.2014 00:20 22,3 C 20,0 C 62 % 1003,0 hPa 0,0 l/m 0 min 0 min 0,0 UV-I 0 W/m 10,3 km/h (2 Bft)
22.05.2014 00:22 22,3 C 20,0 C 62 % 1003,0 hPa 0,0 l/m 0 min 0 min 0,0 UV-I 0 W/m 15,4 km/h (3 Bft)
22.05.2014 00:24 22,3 C 20,0 C 62 % 1003,0 hPa 0,0 l/m 0 min 0 min 0,0 UV-I 0 W/m 20,6 km/h (4 Bft)
22.05.2014 00:26 22,3 C 20,0 C 62 % 1003,1 hPa 0,0 l/m 0 min 0 min 0,0 UV-I 0 W/m 18,0 km/h (3 Bft)
22.05.2014 00:28 22,3 C 20,0 C 62 % 1003,2 hPa 0,0 l/m 0 min 0 min 0,0 UV-I 0 W/m 20,6 km/h (4 Bft)
22.05.2014 00:30 22,3 C 20,0 C 62 % 1003,0 hPa 0,0 l/m 0 min 0 min 0,0 UV-I 0 W/m 0,0 km/h (0 Bft)
22.05.2014 00:32 22,2 C 19,4 C 63 % 1003,0 hPa 0,0 l/m 0 min 0 min 0,0 UV-I 0 W/m 12,9 km/h (3 Bft)
22.05.2014 00:34 22,1 C 19,4 C 62 % 1002,9 hPa 0,0 l/m 0 min 0 min 0,0 UV-I 0 W/m 12,9 km/h (3 Bft)
22.05.2014 00:36 22,1 C 19,4 C 63 % 1002,9 hPa 0,0 l/m 0 min 0 min 0,0 UV-I 0 W/m 10,3 km/h (2 Bft)
22.05.2014 00:38 22,0 C 19,4 C 62 % 1002,9 hPa 0,0 l/m 0 min 0 min 0,0 UV-I 0 W/m 25,7 km/h (4 Bft)
22.05.2014 00:40 22,0 C 19,4 C 62 % 1003,0 hPa 0,0 l/m 0 min 0 min 0,0 UV-I 0 W/m 18,0 km/h (3 Bft)
22.05.2014 00:42 22,0 C 19,4 C 62 % 1003,1 hPa 0,0 l/m 0 min 0 min 0,0 UV-I 0 W/m 18,0 km/h (3 Bft)
22.05.2014 00:44 22,0 C 19,4 C 62 % 1003,1 hPa 0,0 l/m 0 min 0 min 0,0 UV-I 0 W/m 15,4 km/h (3 Bft)
22.05.2014 00:46 21,9 C 19,4 C 63 % 1003,0 hPa 0,0 l/m 0 min 0 min 0,0 UV-I 0 W/m 12,9 km/h (3 Bft)
22.05.2014 00:48 21,9 C 19,4 C 63 % 1003,0 hPa 0,0 l/m 0 min 0 min 0,0 UV-I 0 W/m 15,4 km/h (3 Bft)
22.05.2014 00:50 21,9 C 19,4 C 63 % 1003,0 hPa 0,0 l/m 0 min 0 min 0,0 UV-I 0 W/m 12,9 km/h (3 Bft)
22.05.2014 00:52 21,8 C 19,4 C 63 % 1003,0 hPa 0,0 l/m 0 min 0 min 0,0 UV-I 0 W/m 18,0 km/h (3 Bft)
22.05.2014 00:54 21,7 C 19,4 C 63 % 1003,1 hPa 0,0 l/m 0 min 0 min 0,0 UV-I 0 W/m 10,3 km/h (2 Bft)
22.05.2014 00:56 21,7 C 19,4 C 63 % 1003,0 hPa 0,0 l/m 0 min 0 min 0,0 UV-I 0 W/m 12,9 km/h (3 Bft)
22.05.2014 00:58 21,7 C 19,4 C 63 % 1002,9 hPa 0,0 l/m 0 min 0 min 0,0 UV-I 0 W/m 10,3 km/h (2 Bft)
22.05.2014 01:00 21,6 C 19,4 C 63 % 1002,9 hPa 0,0 l/m 0 min 0 min 0,0 UV-I 0 W/m 23,2 km/h (4 Bft)
22.05.2014 01:02 21,7 C 19,4 C 63 % 1002,9 hPa 0,0 l/m 0 min 0 min 0,0 UV-I 0 W/m 5,1 km/h (1 Bft)
22.05.2014 01:06 21,6 C 19,4 C 63 % 1002,9 hPa 0,0 l/m 0 min 0 min 0,0 UV-I 0 W/m 10,3 km/h (2 Bft)
22.05.2014 01:08 21,7 C 19,4 C 63 % 1002,8 hPa 0,0 l/m 0 min 0 min 0,0 UV-I 0 W/m 18,0 km/h (3 Bft)
22.05.2014 01:10 21,7 C 19,4 C 62 % 1002,7 hPa 0,0 l/m 0 min 0 min 0,0 UV-I 0 W/m 23,2 km/h (4 Bft)
22.05.2014 01:12 21,8 C 19,4 C 62 % 1002,8 hPa 0,0 l/m 0 min 0 min 0,0 UV-I 0 W/m 10,3 km/h (2 Bft)
22.05.2014 01:14 21,8 C 19,4 C 62 % 1002,8 hPa 0,0 l/m 0 min 0 min 0,0 UV-I 0 W/m 20,6 km/h (4 Bft)
22.05.2014 01:16 21,8 C 19,4 C 62 % 1002,8 hPa 0,0 l/m 0 min 0 min 0,0 UV-I 0 W/m 10,3 km/h (2 Bft)
22.05.2014 01:18 21,8 C 19,4 C 62 % 1002,8 hPa 0,0 l/m 0 min 0 min 0,0 UV-I 0 W/m 18,0 km/h (3 Bft)
22.05.2014 01:20 21,8 C 19,4 C 62 % 1002,8 hPa 0,0 l/m 0 min 0 min 0,0 UV-I 0 W/m 18,0 km/h (3 Bft)
22.05.2014 01:22 21,9 C 19,4 C 62 % 1002,8 hPa 0,0 l/m 0 min 0 min 0,0 UV-I 0 W/m 15,4 km/h (3 Bft)
22.05.2014 01:24 21,9 C 20,0 C 61 % 1002,7 hPa 0,0 l/m 0 min 0 min 0,0 UV-I 0 W/m 15,4 km/h (3 Bft)
22.05.2014 01:26 21,9 C 20,0 C 61 % 1002,8 hPa 0,0 l/m 0 min 0 min 0,0 UV-I 0 W/m 15,4 km/h (3 Bft)
22.05.2014 01:28 22,0 C 20,0 C 61 % 1002,9 hPa 0,0 l/m 0 min 0 min 0,0 UV-I 0 W/m 12,9 km/h (3 Bft)
22.05.2014 01:30 22,0 C 20,0 C 61 % 1003,4 hPa 0,0 l/m 0 min 0 min 0,0 UV-I 0 W/m 15,4 km/h (3 Bft)
22.05.2014 01:32 21,9 C 19,4 C 62 % 1004,1 hPa 0,0 l/m 0 min 0 min 0,0 UV-I 0 W/m 10,3 km/h (2 Bft)
22.05.2014 01:34 21,9 C 19,4 C 63 % 1005,6 hPa 0,0 l/m 0 min 0 min 0,0 UV-I 0 W/m 20,6 km/h (4 Bft)
22.05.2014 01:36 21,9 C 19,4 C 63 % 1005,7 hPa 0,0 l/m 0 min 0 min 0,0 UV-I 0 W/m 23,2 km/h (4 Bft)
22.05.2014 01:38 21,8 C 19,4 C 63 % 1005,6 hPa 0,0 l/m 0 min 0 min 0,0 UV-I 0 W/m 28,3 km/h (4 Bft)
22.05.2014 01:40 21,9 C 20,0 C 64 % 1006,0 hPa 0,0 l/m 0 min 0 min 0,0 UV-I 0 W/m 33,5 km/h (5 Bft)
22.05.2014 01:42 21,9 C 20,0 C 63 % 1005,5 hPa 0,0 l/m 0 min 0 min 0,0 UV-I 0 W/m 20,6 km/h (4 Bft)
22.05.2014 01:44 22,1 C 20,0 C 62 % 1005,7 hPa 0,0 l/m 0 min 0 min 0,0 UV-I 0 W/m 18,0 km/h (3 Bft)
22.05.2014 01:46 22,3 C 20,0 C 61 % 1006,0 hPa 0,0 l/m 0 min 2 min 0,0 UV-I 0 W/m 33,5 km/h (5 Bft)
22.05.2014 01:48 22,4 C 20,0 C 62 % 1006,0 hPa 0,0 l/m 0 min 2 min 0,0 UV-I 0 W/m 43,8 km/h (6 Bft)
22.05.2014 01:50 22,4 C 19,4 C 62 % 1006,2 hPa 0,0 l/m 0 min 2 min 0,0 UV-I 0 W/m 18,0 km/h (3 Bft)
22.05.2014 01:52 22,4 C 18,9 C 63 % 1006,0 hPa 0,0 l/m 0 min 2 min 0,0 UV-I 0 W/m 18,0 km/h (3 Bft)
22.05.2014 01:54 22,3 C 18,9 C 64 % 1006,0 hPa 0,0 l/m 0 min 2 min 0,0 UV-I 0 W/m 15,4 km/h (3 Bft)
22.05.2014 01:56 22,2 C 19,4 C 65 % 1006,0 hPa 0,0 l/m 0 min 2 min 0,0 UV-I 0 W/m 20,6 km/h (4 Bft)
22.05.2014 01:58 21,9 C 19,4 C 65 % 1006,2 hPa 0,0 l/m 0 min 2 min 0,0 UV-I 0 W/m 7,7 km/h (2 Bft)
22.05.2014 02:00 21,8 C 19,4 C 66 % 1006,1 hPa 0,0 l/m 0 min 2 min 0,0 UV-I 0 W/m 10,3 km/h (2 Bft)
22.05.2014 02:02 21,7 C 18,9 C 67 % 1006,1 hPa 0,0 l/m 0 min 2 min 0,0 UV-I 0 W/m 7,7 km/h (2 Bft)
22.05.2014 02:06 21,3 C 18,9 C 69 % 1006,2 hPa 0,0 l/m 0 min 0 min 0,0 UV-I 0 W/m 20,6 km/h (4 Bft)
22.05.2014 02:08 21,2 C 18,9 C 69 % 1006,1 hPa 0,0 l/m 0 min 2 min 0,0 UV-I 0 W/m 7,7 km/h (2 Bft)
22.05.2014 02:10 21,1 C 18,9 C 70 % 1006,1 hPa 0,0 l/m 0 min 2 min 0,0 UV-I 0 W/m 12,9 km/h (3 Bft)
22.05.2014 02:12 20,9 C 18,3 C 72 % 1006,2 hPa 0,0 l/m 0 min 2 min 0,0 UV-I 0 W/m 12,9 km/h (3 Bft)
22.05.2014 02:14 20,7 C 17,8 C 72 % 1006,1 hPa 0,0 l/m 0 min 2 min 0,0 UV-I 0 W/m 10,3 km/h (2 Bft)
22.05.2014 02:16 20,6 C 17,8 C 73 % 1006,1 hPa 0,0 l/m 0 min 2 min 0,0 UV-I 0 W/m 5,1 km/h (1 Bft)
22.05.2014 02:18 20,4 C 17,2 C 74 % 1006,0 hPa 0,0 l/m 0 min 2 min 0,0 UV-I 0 W/m 10,3 km/h (2 Bft)
22.05.2014 02:20 20,2 C 17,2 C 75 % 1006,1 hPa 0,0 l/m 0 min 2 min 0,0 UV-I 0 W/m 7,7 km/h (2 Bft)
22.05.2014 02:22 20,1 C 17,2 C 76 % 1005,9 hPa 0,0 l/m 0 min 2 min 0,0 UV-I 0 W/m 0,0 km/h (0 Bft)
22.05.2014 02:24 20,0 C 17,2 C 76 % 1005,9 hPa 0,0 l/m 0 min 0 min 0,0 UV-I 0 W/m 7,7 km/h (2 Bft)
22.05.2014 02:26 19,9 C 17,2 C 77 % 1006,0 hPa 0,0 l/m 0 min 0 min 0,0 UV-I 0 W/m 0,0 km/h (0 Bft)
22.05.2014 02:28 19,8 C 17,8 C 77 % 1005,9 hPa 0,0 l/m 0 min 0 min 0,0 UV-I 0 W/m 0,0 km/h (0 Bft)
22.05.2014 02:30 19,7 C 17,8 C 77 % 1005,8 hPa 0,0 l/m 0 min 0 min 0,0 UV-I 0 W/m 0,0 km/h (0 Bft)
22.05.2014 02:32 19,6 C 17,8 C 78 % 1005,8 hPa 0,0 l/m 0 min 0 min 0,0 UV-I 0 W/m 0,0 km/h (0 Bft)
22.05.2014 02:34 19,6 C 17,8 C 78 % 1005,8 hPa 0,0 l/m 0 min 0 min 0,0 UV-I 0 W/m 0,0 km/h (0 Bft)
22.05.2014 02:36 19,5 C 17,2 C 78 % 1005,9 hPa 0,0 l/m 0 min 0 min 0,0 UV-I 0 W/m 0,0 km/h (0 Bft)
22.05.2014 02:38 19,4 C 17,2 C 79 % 1005,8 hPa 0,0 l/m 0 min 0 min 0,0 UV-I 0 W/m 2,6 km/h (1 Bft)
22.05.2014 02:40 19,4 C 17,2 C 79 % 1005,8 hPa 0,0 l/m 0 min 2 min 0,0 UV-I 0 W/m 0,0 km/h (0 Bft)
22.05.2014 02:42 19,3 C 17,2 C 80 % 1005,7 hPa 0,0 l/m 0 min 2 min 0,0 UV-I 0 W/m 0,0 km/h (0 Bft)
22.05.2014 02:44 19,3 C 16,7 C 80 % 1005,7 hPa 0,0 l/m 0 min 2 min 0,0 UV-I 0 W/m 0,0 km/h (0 Bft)
22.05.2014 02:46 19,2 C 16,1 C 80 % 1005,7 hPa 0,0 l/m 0 min 2 min 0,0 UV-I 0 W/m 0,0 km/h (0 Bft)
22.05.2014 02:48 19,1 C 16,1 C 81 % 1005,6 hPa 0,0 l/m 0 min 2 min 0,0 UV-I 0 W/m 0,0 km/h (0 Bft)
22.05.2014 02:50 19,1 C 15,6 C 81 % 1005,6 hPa 0,0 l/m 0 min 2 min 0,0 UV-I 0 W/m 0,0 km/h (0 Bft)
22.05.2014 02:52 19,0 C 15,6 C 82 % 1005,6 hPa 0,0 l/m 0 min 2 min 0,0 UV-I 0 W/m 0,0 km/h (0 Bft)
22.05.2014 02:54 18,9 C 15,6 C 83 % 1005,6 hPa 0,0 l/m 0 min 2 min 0,0 UV-I 0 W/m 0,0 km/h (0 Bft)
22.05.2014 02:56 18,7 C 15,6 C 84 % 1005,6 hPa 0,0 l/m 0 min 2 min 0,0 UV-I 0 W/m 0,0 km/h (0 Bft)
22.05.2014 02:58 18,6 C 15,6 C 84 % 1005,5 hPa 0,0 l/m 0 min 2 min 0,0 UV-I 0 W/m 0,0 km/h (0 Bft)
22.05.2014 03:00 18,6 C 15,6 C 85 % 1005,5 hPa 0,0 l/m 0 min 2 min 0,0 UV-I 0 W/m 0,0 km/h (0 Bft)
22.05.2014 03:02 18,4 C 15,6 C 86 % 1005,5 hPa 0,0 l/m 0 min 0 min 0,0 UV-I 0 W/m 0,0 km/h (0 Bft)
22.05.2014 03:06 18,3 C 15,6 C 87 % 1005,7 hPa 0,0 l/m 0 min 0 min 0,0 UV-I 0 W/m 0,0 km/h (0 Bft)
22.05.2014 03:08 18,3 C 15,6 C 87 % 1005,6 hPa 0,0 l/m 0 min 0 min 0,0 UV-I 0 W/m 0,0 km/h (0 Bft)
22.05.2014 03:10 18,2 C 15,6 C 87 % 1005,6 hPa 0,0 l/m 0 min 0 min 0,0 UV-I 0 W/m 0,0 km/h (0 Bft)
22.05.2014 03:12 18,1 C 15,6 C 87 % 1005,5 hPa 0,0 l/m 0 min 0 min 0,0 UV-I 0 W/m 0,0 km/h (0 Bft)
22.05.2014 03:14 18,1 C 15,0 C 88 % 1005,4 hPa 0,0 l/m 0 min 0 min 0,0 UV-I 0 W/m 0,0 km/h (0 Bft)
22.05.2014 03:16 18,1 C 15,6 C 88 % 1005,4 hPa 0,0 l/m 0 min 0 min 0,0 UV-I 0 W/m 0,0 km/h (0 Bft)
22.05.2014 03:18 18,0 C 15,0 C 88 % 1005,1 hPa 0,0 l/m 0 min 0 min 0,0 UV-I 0 W/m 0,0 km/h (0 Bft)
22.05.2014 03:20 18,0 C 15,0 C 88 % 1005,3 hPa 0,0 l/m 0 min 2 min 0,0 UV-I 0 W/m 0,0 km/h (0 Bft)
22.05.2014 03:22 18,0 C 15,0 C 88 % 1005,6 hPa 0,0 l/m 0 min 0 min 0,0 UV-I 0 W/m 0,0 km/h (0 Bft)
22.05.2014 03:24 17,9 C 15,6 C 88 % 1005,7 hPa 0,0 l/m 0 min 2 min 0,0 UV-I 0 W/m 0,0 km/h (0 Bft)
22.05.2014 03:26 17,9 C 15,6 C 89 % 1005,4 hPa 0,0 l/m 0 min 2 min 0,0 UV-I 0 W/m 0,0 km/h (0 Bft)
22.05.2014 03:28 17,9 C 15,6 C 89 % 1005,7 hPa 0,0 l/m 0 min 0 min 0,0 UV-I 0 W/m 0,0 km/h (0 Bft)
22.05.2014 03:30 17,8 C 15,6 C 89 % 1005,8 hPa 0,0 l/m 0 min 2 min 0,0 UV-I 0 W/m 0,0 km/h (0 Bft)
22.05.2014 03:32 17,8 C 15,6 C 89 % 1005,7 hPa 0,0 l/m 0 min 2 min 0,0 UV-I 0 W/m 0,0 km/h (0 Bft)
22.05.2014 03:34 17,8 C 15,0 C 89 % 1005,8 hPa 0,0 l/m 0 min 2 min 0,0 UV-I 0 W/m 0,0 km/h (0 Bft)
22.05.2014 03:36 17,8 C 15,0 C 89 % 1005,8 hPa 0,0 l/m 0 min 0 min 0,0 UV-I 0 W/m 0,0 km/h (0 Bft)
22.05.2014 03:38 17,8 C 15,0 C 89 % 1005,8 hPa 0,0 l/m 0 min 0 min 0,0 UV-I 0 W/m 0,0 km/h (0 Bft)
22.05.2014 03:40 17,8 C 15,0 C 89 % 1005,7 hPa 0,0 l/m 0 min 0 min 0,0 UV-I 0 W/m 0,0 km/h (0 Bft)
22.05.2014 03:42 17,8 C 15,0 C 89 % 1005,6 hPa 0,0 l/m 0 min 0 min 0,0 UV-I 0 W/m 0,0 km/h (0 Bft)
22.05.2014 03:44 17,9 C 15,0 C 89 % 1005,6 hPa 0,0 l/m 0 min 0 min 0,0 UV-I 0 W/m 0,0 km/h (0 Bft)
22.05.2014 03:46 17,9 C 15,0 C 89 % 1005,6 hPa 0,0 l/m 0 min 0 min 0,0 UV-I 0 W/m 0,0 km/h (0 Bft)
22.05.2014 03:48 17,9 C 15,0 C 88 % 1005,7 hPa 0,0 l/m 0 min 0 min 0,0 UV-I 0 W/m 0,0 km/h (0 Bft)
22.05.2014 03:50 17,9 C 15,0 C 88 % 1005,7 hPa 0,0 l/m 0 min 0 min 0,0 UV-I 0 W/m 0,0 km/h (0 Bft)
22.05.2014 03:52 18,0 C 15,0 C 88 % 1005,7 hPa 0,0 l/m 0 min 0 min 0,0 UV-I 0 W/m 7,7 km/h (2 Bft)
22.05.2014 03:54 18,1 C 15,0 C 88 % 1005,7 hPa 0,0 l/m 0 min 0 min 0,0 UV-I 0 W/m 2,6 km/h (1 Bft)
22.05.2014 03:56 18,1 C 15,0 C 87 % 1005,7 hPa 0,0 l/m 0 min 0 min 0,0 UV-I 0 W/m 0,0 km/h (0 Bft)
22.05.2014 03:58 18,1 C 15,0 C 87 % 1005,7 hPa 0,0 l/m 0 min 0 min 0,0 UV-I 0 W/m 2,6 km/h (1 Bft)
22.05.2014 04:00 18,1 C 15,0 C 87 % 1005,8 hPa 0,0 l/m 0 min 0 min 0,0 UV-I 0 W/m 18,0 km/h (3 Bft)
22.05.2014 04:02 18,1 C 15,0 C 87 % 1005,8 hPa 0,2 l/m 0 min 0 min 0,0 UV-I 0 W/m 12,9 km/h (3 Bft)
22.05.2014 04:06 18,2 C 15,0 C 87 % 1005,9 hPa 0,0 l/m 0 min 2 min 0,0 UV-I 0 W/m 10,3 km/h (2 Bft)
22.05.2014 04:08 18,2 C 15,0 C 87 % 1006,0 hPa 0,0 l/m 0 min 0 min 0,0 UV-I 0 W/m 10,3 km/h (2 Bft)
22.05.2014 04:10 18,2 C 15,0 C 87 % 1005,8 hPa 0,0 l/m 0 min 2 min 0,0 UV-I 0 W/m 12,9 km/h (3 Bft)
22.05.2014 04:12 18,1 C 15,0 C 87 % 1005,9 hPa 0,0 l/m 0 min 0 min 0,0 UV-I 0 W/m 12,9 km/h (3 Bft)
22.05.2014 04:14 18,1 C 15,0 C 87 % 1005,9 hPa 0,0 l/m 0 min 0 min 0,0 UV-I 0 W/m 10,3 km/h (2 Bft)
22.05.2014 04:16 18,2 C 15,0 C 87 % 1006,0 hPa 0,0 l/m 0 min 0 min 0,0 UV-I 0 W/m 2,6 km/h (1 Bft)
22.05.2014 04:18 18,1 C 15,0 C 87 % 1005,9 hPa 0,0 l/m 0 min 0 min 0,0 UV-I 0 W/m 10,3 km/h (2 Bft)
22.05.2014 04:20 18,1 C 15,0 C 87 % 1005,9 hPa 0,0 l/m 0 min 0 min 0,0 UV-I 0 W/m 15,4 km/h (3 Bft)
22.05.2014 04:22 18,1 C 15,0 C 86 % 1005,9 hPa 0,0 l/m 0 min 0 min 0,0 UV-I 0 W/m 20,6 km/h (4 Bft)
22.05.2014 04:24 18,1 C 15,0 C 86 % 1005,9 hPa 0,0 l/m 0 min 0 min 0,0 UV-I 0 W/m 7,7 km/h (2 Bft)
22.05.2014 04:26 18,1 C 15,0 C 86 % 1005,9 hPa 0,0 l/m 0 min 0 min 0,0 UV-I 0 W/m 10,3 km/h (2 Bft)
22.05.2014 04:28 18,1 C 15,0 C 86 % 1005,9 hPa 0,0 l/m 0 min 0 min 0,0 UV-I 0 W/m 7,7 km/h (2 Bft)
22.05.2014 04:30 18,1 C 15,0 C 85 % 1005,8 hPa 0,0 l/m 0 min 0 min 0,0 UV-I 0 W/m 2,6 km/h (1 Bft)
22.05.2014 04:32 18,0 C 15,0 C 85 % 1005,9 hPa 0,0 l/m 0 min 0 min 0,0 UV-I 0 W/m 18,0 km/h (3 Bft)
22.05.2014 04:34 17,9 C 15,0 C 84 % 1005,8 hPa 0,0 l/m 0 min 0 min 0,0 UV-I 0 W/m 12,9 km/h (3 Bft)
22.05.2014 04:36 17,9 C 15,6 C 84 % 1005,7 hPa 0,0 l/m 0 min 0 min 0,0 UV-I 0 W/m 7,7 km/h (2 Bft)
22.05.2014 04:38 17,9 C 15,6 C 84 % 1005,7 hPa 0,0 l/m 0 min 0 min 0,0 UV-I 0 W/m 15,4 km/h (3 Bft)
22.05.2014 04:40 17,9 C 15,6 C 83 % 1005,8 hPa 0,0 l/m 0 min 0 min 0,0 UV-I 0 W/m 12,9 km/h (3 Bft)
22.05.2014 04:42 17,9 C 15,6 C 83 % 1005,7 hPa 0,0 l/m 0 min 0 min 0,0 UV-I 0 W/m 12,9 km/h (3 Bft)
22.05.2014 04:44 17,9 C 15,6 C 83 % 1005,6 hPa 0,0 l/m 0 min 0 min 0,0 UV-I 0 W/m 7,7 km/h (2 Bft)
22.05.2014 04:46 17,9 C 15,6 C 83 % 1005,6 hPa 0,0 l/m 0 min 0 min 0,0 UV-I 0 W/m 7,7 km/h (2 Bft)
22.05.2014 04:48 17,9 C 15,6 C 84 % 1005,6 hPa 0,0 l/m 0 min 0 min 0,0 UV-I 0 W/m 5,1 km/h (1 Bft)
22.05.2014 04:50 17,9 C 15,6 C 84 % 1005,6 hPa 0,0 l/m 0 min 0 min 0,0 UV-I 0 W/m 18,0 km/h (3 Bft)
22.05.2014 04:52 17,9 C 15,6 C 85 % 1005,6 hPa 0,0 l/m 0 min 2 min 0,0 UV-I 0 W/m 7,7 km/h (2 Bft)
22.05.2014 04:54 17,8 C 15,0 C 85 % 1005,4 hPa 0,2 l/m 0 min 2 min 0,0 UV-I 0 W/m 15,4 km/h (3 Bft)
22.05.2014 04:56 17,7 C 15,0 C 86 % 1005,4 hPa 0,0 l/m 0 min 2 min 0,0 UV-I 0 W/m 0,0 km/h (0 Bft)
22.05.2014 04:58 17,6 C 15,0 C 87 % 1005,3 hPa 0,0 l/m 0 min 2 min 0,0 UV-I 0 W/m 0,0 km/h (0 Bft)
22.05.2014 05:00 17,5 C 15,0 C 88 % 1005,3 hPa 0,0 l/m 0 min 0 min 0,0 UV-I 0 W/m 5,1 km/h (1 Bft)
22.05.2014 05:02 17,4 C 15,0 C 88 % 1005,2 hPa 0,0 l/m 0 min 0 min 0,0 UV-I 0 W/m 10,3 km/h (2 Bft)
22.05.2014 05:06 17,2 C 15,0 C 89 % 1005,2 hPa 0,0 l/m 0 min 0 min 0,0 UV-I 0 W/m 5,1 km/h (1 Bft)
22.05.2014 05:08 17,2 C 15,0 C 89 % 1005,2 hPa 0,0 l/m 0 min 0 min 0,0 UV-I 0 W/m 5,1 km/h (1 Bft)
22.05.2014 05:10 17,1 C 14,4 C 89 % 1005,1 hPa 0,0 l/m 0 min 0 min 0,0 UV-I 0 W/m 0,0 km/h (0 Bft)
22.05.2014 05:12 17,1 C 14,4 C 90 % 1005,1 hPa 0,0 l/m 0 min 2 min 0,0 UV-I 0 W/m 7,7 km/h (2 Bft)
22.05.2014 05:14 17,1 C 14,4 C 89 % 1004,9 hPa 0,2 l/m 0 min 2 min 0,0 UV-I 0 W/m 7,7 km/h (2 Bft)
22.05.2014 05:16 17,1 C 14,4 C 89 % 1005,0 hPa 0,2 l/m 0 min 2 min 0,0 UV-I 0 W/m 5,1 km/h (1 Bft)
22.05.2014 05:18 17,0 C 14,4 C 89 % 1004,9 hPa 0,0 l/m 0 min 2 min 0,0 UV-I 0 W/m 0,0 km/h (0 Bft)
22.05.2014 05:20 16,9 C 14,4 C 90 % 1004,9 hPa 0,0 l/m 0 min 2 min 0,0 UV-I 0 W/m 0,0 km/h (0 Bft)
22.05.2014 05:22 16,9 C 14,4 C 90 % 1004,7 hPa 0,2 l/m 0 min 2 min 0,0 UV-I 0 W/m 12,9 km/h (3 Bft)
22.05.2014 05:24 16,8 C 14,4 C 90 % 1004,8 hPa 0,0 l/m 0 min 2 min 0,0 UV-I 0 W/m 7,7 km/h (2 Bft)
22.05.2014 05:26 16,7 C 14,4 C 90 % 1004,9 hPa 0,0 l/m 0 min 2 min 0,0 UV-I 0 W/m 5,1 km/h (1 Bft)
22.05.2014 05:28 16,6 C 14,4 C 90 % 1004,9 hPa 0,0 l/m 0 min 0 min 0,0 UV-I 0 W/m 2,6 km/h (1 Bft)
22.05.2014 05:30 16,6 C 14,4 C 91 % 1004,8 hPa 0,0 l/m 0 min 0 min 0,0 UV-I 0 W/m 0,0 km/h (0 Bft)
22.05.2014 05:32 16,5 C 14,4 C 91 % 1004,8 hPa 0,0 l/m 0 min 0 min 0,0 UV-I 0 W/m 7,7 km/h (2 Bft)
22.05.2014 05:34 16,4 C 14,4 C 91 % 1004,9 hPa 0,0 l/m 0 min 0 min 0,0 UV-I 0 W/m 2,6 km/h (1 Bft)
22.05.2014 05:36 16,4 C 14,4 C 91 % 1004,8 hPa 0,0 l/m 0 min 0 min 0,0 UV-I 0 W/m 7,7 km/h (2 Bft)
22.05.2014 05:38 16,3 C 14,4 C 91 % 1004,9 hPa 0,0 l/m 0 min 0 min 0,0 UV-I 0 W/m 2,6 km/h (1 Bft)
22.05.2014 05:40 16,3 C 14,4 C 91 % 1004,9 hPa 0,0 l/m 0 min 0 min 0,0 UV-I 0 W/m 7,7 km/h (2 Bft)
22.05.2014 05:42 16,3 C 14,4 C 92 % 1004,9 hPa 0,0 l/m 0 min 0 min 0,0 UV-I 0 W/m 0,0 km/h (0 Bft)
22.05.2014 05:44 16,3 C 13,9 C 92 % 1004,9 hPa 0,0 l/m 0 min 0 min 0,0 UV-I 5 W/m 0,0 km/h (0 Bft)
22.05.2014 05:46 16,2 C 13,9 C 92 % 1004,9 hPa 0,0 l/m 0 min 0 min 0,0 UV-I 7 W/m 0,0 km/h (0 Bft)
22.05.2014 05:48 16,2 C 13,9 C 92 % 1005,0 hPa 0,0 l/m 0 min 0 min 0,0 UV-I 9 W/m 0,0 km/h (0 Bft)
22.05.2014 05:50 16,2 C 13,9 C 92 % 1005,0 hPa 0,0 l/m 0 min 0 min 0,0 UV-I 9 W/m 0,0 km/h (0 Bft)
22.05.2014 05:52 16,2 C 13,9 C 92 % 1005,0 hPa 0,0 l/m 0 min 0 min 0,0 UV-I 9 W/m 0,0 km/h (0 Bft)
22.05.2014 05:54 16,1 C 13,9 C 92 % 1005,0 hPa 0,0 l/m 0 min 0 min 0,0 UV-I 11 W/m 5,1 km/h (1 Bft)
22.05.2014 05:56 16,1 C 13,9 C 92 % 1005,2 hPa 0,0 l/m 0 min 0 min 0,0 UV-I 12 W/m 2,6 km/h (1 Bft)
22.05.2014 05:58 16,1 C 13,9 C 92 % 1005,2 hPa 0,0 l/m 0 min 0 min 0,0 UV-I 14 W/m 0,0 km/h (0 Bft)
22.05.2014 06:00 16,1 C 13,9 C 92 % 1005,1 hPa 0,0 l/m 0 min 0 min 0,0 UV-I 14 W/m 0,0 km/h (0 Bft)
22.05.2014 06:02 16,1 C 13,9 C 92 % 1005,2 hPa 0,0 l/m 0 min 0 min 0,0 UV-I 18 W/m 0,0 km/h (0 Bft)
22.05.2014 06:06 16,0 C 13,9 C 92 % 1005,5 hPa 0,0 l/m 0 min 0 min 0,0 UV-I 21 W/m 0,0 km/h (0 Bft)
22.05.2014 06:08 16,0 C 13,9 C 92 % 1005,6 hPa 0,0 l/m 0 min 0 min 0,0 UV-I 23 W/m 0,0 km/h (0 Bft)
22.05.2014 06:10 16,0 C 13,9 C 92 % 1005,6 hPa 0,0 l/m 0 min 0 min 0,0 UV-I 23 W/m 0,0 km/h (0 Bft)
22.05.2014 06:12 16,0 C 13,9 C 92 % 1005,5 hPa 0,0 l/m 0 min 0 min 0,0 UV-I 23 W/m 0,0 km/h (0 Bft)
22.05.2014 06:14 16,0 C 13,9 C 93 % 1005,5 hPa 0,0 l/m 0 min 0 min 0,0 UV-I 21 W/m 0,0 km/h (0 Bft)
22.05.2014 06:16 16,0 C 13,9 C 93 % 1005,6 hPa 0,0 l/m 0 min 0 min 0,0 UV-I 21 W/m 0,0 km/h (0 Bft)
22.05.2014 06:18 16,0 C 13,9 C 93 % 1005,7 hPa 0,0 l/m 0 min 0 min 0,0 UV-I 25 W/m 0,0 km/h (0 Bft)
22.05.2014 06:20 15,9 C 13,9 C 93 % 1005,6 hPa 0,0 l/m 0 min 0 min 0,0 UV-I 28 W/m 0,0 km/h (0 Bft)
22.05.2014 06:22 15,9 C 13,9 C 93 % 1005,6 hPa 0,0 l/m 0 min 0 min 0,0 UV-I 30 W/m 0,0 km/h (0 Bft)
22.05.2014 06:24 15,9 C 13,9 C 93 % 1005,6 hPa 0,0 l/m 0 min 0 min 0,0 UV-I 32 W/m 0,0 km/h (0 Bft)
22.05.2014 06:26 15,9 C 13,9 C 93 % 1005,6 hPa 0,0 l/m 0 min 0 min 0,0 UV-I 33 W/m 0,0 km/h (0 Bft)
22.05.2014 06:28 15,9 C 13,9 C 93 % 1005,6 hPa 0,0 l/m 0 min 0 min 0,0 UV-I 35 W/m 2,6 km/h (1 Bft)
22.05.2014 06:30 15,9 C 13,9 C 93 % 1005,6 hPa 0,0 l/m 0 min 0 min 0,0 UV-I 35 W/m 0,0 km/h (0 Bft)
22.05.2014 06:32 15,9 C 13,9 C 93 % 1005,6 hPa 0,0 l/m 0 min 0 min 0,0 UV-I 37 W/m 0,0 km/h (0 Bft)
22.05.2014 06:34 15,9 C 13,9 C 93 % 1005,6 hPa 0,0 l/m 0 min 0 min 0,0 UV-I 37 W/m 0,0 km/h (0 Bft)
22.05.2014 06:36 16,0 C 13,9 C 93 % 1005,6 hPa 0,0 l/m 0 min 0 min 0,0 UV-I 35 W/m 0,0 km/h (0 Bft)
22.05.2014 06:38 16,0 C 13,9 C 93 % 1005,7 hPa 0,0 l/m 0 min 0 min 0,0 UV-I 35 W/m 0,0 km/h (0 Bft)
22.05.2014 06:40 16,0 C 13,9 C 93 % 1005,7 hPa 0,0 l/m 0 min 0 min 0,0 UV-I 39 W/m 0,0 km/h (0 Bft)
22.05.2014 06:42 16,1 C 13,9 C 92 % 1005,7 hPa 0,0 l/m 0 min 0 min 0,0 UV-I 42 W/m 0,0 km/h (0 Bft)
22.05.2014 06:44 16,1 C 13,9 C 92 % 1005,7 hPa 0,0 l/m 0 min 0 min 0,0 UV-I 46 W/m 0,0 km/h (0 Bft)
22.05.2014 06:46 16,2 C 13,9 C 92 % 1005,7 hPa 0,0 l/m 0 min 0 min 0,0 UV-I 49 W/m 0,0 km/h (0 Bft)
22.05.2014 06:48 16,2 C 13,9 C 92 % 1005,7 hPa 0,0 l/m 0 min 0 min 0,0 UV-I 51 W/m 0,0 km/h (0 Bft)
22.05.2014 06:50 16,2 C 14,4 C 91 % 1005,9 hPa 0,0 l/m 0 min 0 min 0,0 UV-I 53 W/m 0,0 km/h (0 Bft)
22.05.2014 06:52 16,3 C 14,4 C 91 % 1005,9 hPa 0,0 l/m 0 min 0 min 0,0 UV-I 53 W/m 0,0 km/h (0 Bft)
22.05.2014 06:54 16,3 C 14,4 C 91 % 1006,0 hPa 0,0 l/m 0 min 0 min 0,0 UV-I 54 W/m 2,6 km/h (1 Bft)
22.05.2014 06:56 16,4 C 13,9 C 91 % 1006,1 hPa 0,0 l/m 0 min 0 min 0,0 UV-I 56 W/m 0,0 km/h (0 Bft)
22.05.2014 06:58 16,4 C 14,4 C 91 % 1006,1 hPa 0,0 l/m 0 min 0 min 0,0 UV-I 56 W/m 0,0 km/h (0 Bft)
22.05.2014 07:00 16,5 C 14,4 C 90 % 1006,2 hPa 0,0 l/m 0 min 0 min 0,0 UV-I 56 W/m 0,0 km/h (0 Bft)
22.05.2014 07:02 16,4 C 14,4 C 90 % 1006,3 hPa 0,0 l/m 0 min 0 min 0,0 UV-I 54 W/m 0,0 km/h (0 Bft)
22.05.2014 07:06 16,4 C 14,4 C 91 % 1006,5 hPa 0,2 l/m 0 min 0 min 0,0 UV-I 54 W/m 0,0 km/h (0 Bft)
22.05.2014 07:08 16,4 C 14,4 C 91 % 1006,5 hPa 0,0 l/m 0 min 0 min 0,0 UV-I 56 W/m 0,0 km/h (0 Bft)
22.05.2014 07:10 16,4 C 14,4 C 91 % 1006,5 hPa 0,0 l/m 0 min 0 min 0,0 UV-I 56 W/m 0,0 km/h (0 Bft)
22.05.2014 07:12 16,3 C 14,4 C 91 % 1006,6 hPa 0,0 l/m 0 min 0 min 0,0 UV-I 53 W/m 0,0 km/h (0 Bft)
22.05.2014 07:14 16,3 C 14,4 C 92 % 1006,6 hPa 0,0 l/m 0 min 0 min 0,0 UV-I 49 W/m 0,0 km/h (0 Bft)
22.05.2014 07:16 16,3 C 14,4 C 92 % 1006,5 hPa 0,0 l/m 0 min 0 min 0,0 UV-I 51 W/m 0,0 km/h (0 Bft)
22.05.2014 07:18 16,3 C 14,4 C 92 % 1006,5 hPa 0,0 l/m 0 min 0 min 0,0 UV-I 51 W/m 0,0 km/h (0 Bft)
22.05.2014 07:20 16,3 C 14,4 C 91 % 1006,5 hPa 0,0 l/m 0 min 0 min 0,0 UV-I 49 W/m 2,6 km/h (1 Bft)
22.05.2014 07:22 16,3 C 14,4 C 90 % 1006,6 hPa 0,0 l/m 0 min 0 min 0,0 UV-I 51 W/m 5,1 km/h (1 Bft)
22.05.2014 07:24 16,3 C 14,4 C 90 % 1006,7 hPa 0,0 l/m 0 min 0 min 0,0 UV-I 49 W/m 0,0 km/h (0 Bft)
22.05.2014 07:26 16,4 C 14,4 C 89 % 1006,9 hPa 0,0 l/m 0 min 0 min 0,0 UV-I 46 W/m 0,0 km/h (0 Bft)
22.05.2014 07:28 16,5 C 14,4 C 89 % 1007,0 hPa 0,0 l/m 0 min 0 min 0,0 UV-I 40 W/m 0,0 km/h (0 Bft)
22.05.2014 07:30 16,5 C 14,4 C 89 % 1007,1 hPa 0,0 l/m 0 min 0 min 0,0 UV-I 37 W/m 0,0 km/h (0 Bft)
22.05.2014 07:32 16,4 C 13,9 C 88 % 1007,1 hPa 0,0 l/m 0 min 0 min 0,0 UV-I 37 W/m 0,0 km/h (0 Bft)
22.05.2014 07:34 16,4 C 13,9 C 88 % 1007,1 hPa 0,0 l/m 0 min 0 min 0,0 UV-I 39 W/m 0,0 km/h (0 Bft)
22.05.2014 07:36 16,4 C 13,9 C 88 % 1007,0 hPa 0,0 l/m 0 min 0 min 0,0 UV-I 40 W/m 0,0 km/h (0 Bft)
22.05.2014 07:38 16,4 C 13,9 C 87 % 1007,0 hPa 0,0 l/m 0 min 0 min 0,0 UV-I 40 W/m 0,0 km/h (0 Bft)
22.05.2014 07:40 16,4 C 13,9 C 87 % 1007,1 hPa 0,0 l/m 0 min 0 min 0,0 UV-I 42 W/m 0,0 km/h (0 Bft)
22.05.2014 07:42 16,4 C 13,9 C 87 % 1007,1 hPa 0,0 l/m 0 min 0 min 0,0 UV-I 42 W/m 0,0 km/h (0 Bft)
22.05.2014 07:44 16,4 C 13,9 C 87 % 1007,1 hPa 0,0 l/m 0 min 0 min 0,0 UV-I 44 W/m 2,6 km/h (1 Bft)
22.05.2014 07:46 16,4 C 13,9 C 86 % 1007,0 hPa 0,0 l/m 0 min 0 min 0,0 UV-I 46 W/m 0,0 km/h (0 Bft)
22.05.2014 07:48 16,4 C 13,9 C 86 % 1007,0 hPa 0,0 l/m 0 min 0 min 0,0 UV-I 49 W/m 0,0 km/h (0 Bft)
22.05.2014 07:50 16,4 C 13,9 C 85 % 1007,0 hPa 0,0 l/m 0 min 0 min 0,0 UV-I 51 W/m 0,0 km/h (0 Bft)
22.05.2014 07:52 16,5 C 13,9 C 85 % 1007,0 hPa 0,0 l/m 0 min 0 min 0,0 UV-I 51 W/m 0,0 km/h (0 Bft)
22.05.2014 07:54 16,5 C 13,9 C 85 % 1007,1 hPa 0,0 l/m 0 min 0 min 0,0 UV-I 53 W/m 0,0 km/h (0 Bft)
22.05.2014 07:56 16,5 C 13,9 C 85 % 1007,0 hPa 0,0 l/m 0 min 0 min 0,0 UV-I 56 W/m 0,0 km/h (0 Bft)
22.05.2014 07:58 16,4 C 13,9 C 86 % 1007,0 hPa 0,0 l/m 0 min 0 min 0,0 UV-I 60 W/m 0,0 km/h (0 Bft)
22.05.2014 08:00 16,4 C 13,9 C 85 % 1007,0 hPa 0,0 l/m 0 min 0 min 0,0 UV-I 65 W/m 0,0 km/h (0 Bft)
22.05.2014 08:02 16,5 C 13,9 C 87 % 1007,1 hPa 0,0 l/m 0 min 0 min 0,0 UV-I 62 W/m 0,0 km/h (0 Bft)
22.05.2014 08:06 16,3 C 13,9 C 85 % 1007,3 hPa 0,0 l/m 0 min 0 min 0,0 UV-I 60 W/m 10,3 km/h (2 Bft)
22.05.2014 08:08 16,3 C 13,9 C 84 % 1007,4 hPa 0,0 l/m 0 min 0 min 0,0 UV-I 62 W/m 5,1 km/h (1 Bft)
22.05.2014 08:10 16,3 C 13,9 C 83 % 1007,3 hPa 0,0 l/m 0 min 0 min 0,0 UV-I 63 W/m 5,1 km/h (1 Bft)
22.05.2014 08:12 16,3 C 13,9 C 83 % 1007,5 hPa 0,0 l/m 0 min 0 min 0,0 UV-I 77 W/m 2,6 km/h (1 Bft)
22.05.2014 08:14 16,4 C 13,9 C 83 % 1007,7 hPa 0,0 l/m 0 min 0 min 0,0 UV-I 91 W/m 5,1 km/h (1 Bft)
22.05.2014 08:16 16,4 C 13,9 C 83 % 1007,7 hPa 0,0 l/m 0 min 0 min 0,0 UV-I 105 W/m 0,0 km/h (0 Bft)
22.05.2014 08:18 16,4 C 13,9 C 84 % 1007,8 hPa 0,0 l/m 0 min 0 min 0,0 UV-I 130 W/m 2,6 km/h (1 Bft)
22.05.2014 08:20 16,4 C 14,4 C 83 % 1007,8 hPa 0,0 l/m 0 min 0 min 0,0 UV-I 130 W/m 0,0 km/h (0 Bft)
22.05.2014 08:22 16,4 C 14,4 C 83 % 1007,8 hPa 0,0 l/m 0 min 0 min 0,0 UV-I 141 W/m 15,4 km/h (3 Bft)
22.05.2014 08:24 16,4 C 14,4 C 83 % 1007,7 hPa 0,0 l/m 0 min 0 min 0,0 UV-I 113 W/m 0,0 km/h (0 Bft)
22.05.2014 08:26 16,4 C 14,4 C 83 % 1007,7 hPa 0,0 l/m 0 min 0 min 0,0 UV-I 97 W/m 2,6 km/h (1 Bft)
22.05.2014 08:28 16,3 C 13,9 C 83 % 1007,6 hPa 0,0 l/m 0 min 0 min 0,0 UV-I 88 W/m 2,6 km/h (1 Bft)
22.05.2014 08:30 16,3 C 13,9 C 82 % 1007,5 hPa 0,0 l/m 0 min 0 min 0,0 UV-I 90 W/m 0,0 km/h (0 Bft)
22.05.2014 08:32 16,3 C 13,9 C 82 % 1007,3 hPa 0,0 l/m 0 min 0 min 0,0 UV-I 91 W/m 0,0 km/h (0 Bft)
22.05.2014 08:34 16,3 C 13,9 C 82 % 1007,4 hPa 0,0 l/m 0 min 0 min 0,0 UV-I 88 W/m 0,0 km/h (0 Bft)
22.05.2014 08:36 16,2 C 13,9 C 81 % 1007,7 hPa 0,0 l/m 0 min 0 min 0,0 UV-I 86 W/m 0,0 km/h (0 Bft)
22.05.2014 08:38 16,2 C 13,9 C 80 % 1007,6 hPa 0,0 l/m 0 min 0 min 0,0 UV-I 90 W/m 5,1 km/h (1 Bft)
22.05.2014 08:40 16,2 C 13,9 C 79 % 1007,5 hPa 0,0 l/m 0 min 0 min 0,0 UV-I 90 W/m 2,6 km/h (1 Bft)
22.05.2014 08:42 16,2 C 13,9 C 79 % 1007,6 hPa 0,0 l/m 0 min 0 min 0,0 UV-I 93 W/m 7,7 km/h (2 Bft)
22.05.2014 08:44 16,2 C 13,9 C 79 % 1007,7 hPa 0,0 l/m 0 min 0 min 0,0 UV-I 98 W/m 2,6 km/h (1 Bft)
22.05.2014 08:46 16,2 C 13,9 C 78 % 1007,7 hPa 0,0 l/m 0 min 0 min 0,0 UV-I 121 W/m 12,9 km/h (3 Bft)
22.05.2014 08:48 16,2 C 13,9 C 79 % 1007,8 hPa 0,0 l/m 0 min 0 min 0,0 UV-I 123 W/m 12,9 km/h (3 Bft)
22.05.2014 08:50 16,2 C 13,9 C 79 % 1007,7 hPa 0,0 l/m 0 min 0 min 0,0 UV-I 130 W/m 0,0 km/h (0 Bft)
22.05.2014 08:52 16,2 C 13,9 C 78 % 1007,6 hPa 0,0 l/m 0 min 0 min 0,0 UV-I 121 W/m 2,6 km/h (1 Bft)
22.05.2014 08:54 16,2 C 13,9 C 77 % 1007,6 hPa 0,0 l/m 0 min 0 min 0,0 UV-I 132 W/m 2,6 km/h (1 Bft)
22.05.2014 08:56 16,2 C 13,9 C 78 % 1007,6 hPa 0,0 l/m 0 min 2 min 0,0 UV-I 139 W/m 2,6 km/h (1 Bft)
22.05.2014 08:58 16,3 C 13,9 C 78 % 1007,6 hPa 0,0 l/m 0 min 2 min 0,0 UV-I 130 W/m 0,0 km/h (0 Bft)
22.05.2014 09:00 16,2 C 13,9 C 79 % 1007,6 hPa 0,0 l/m 0 min 2 min 0,0 UV-I 135 W/m 0,0 km/h (0 Bft)
22.05.2014 09:02 16,2 C 13,9 C 78 % 1007,4 hPa 0,0 l/m 0 min 0 min 0,0 UV-I 132 W/m 0,0 km/h (0 Bft)
22.05.2014 09:06 16,2 C 13,9 C 78 % 1007,5 hPa 0,0 l/m 0 min 0 min 0,0 UV-I 156 W/m 0,0 km/h (0 Bft)
22.05.2014 09:08 16,2 C 13,9 C 78 % 1007,6 hPa 0,0 l/m 0 min 2 min 0,0 UV-I 206 W/m 0,0 km/h (0 Bft)
22.05.2014 09:10 16,3 C 13,9 C 79 % 1007,7 hPa 0,0 l/m 2 min 2 min 0,0 UV-I 290 W/m 2,6 km/h (1 Bft)
22.05.2014 09:12 16,4 C 14,4 C 79 % 1007,7 hPa 0,0 l/m 2 min 0 min 0,0 UV-I 373 W/m 0,0 km/h (0 Bft)
22.05.2014 09:14 16,6 C 14,4 C 79 % 1007,7 hPa 0,0 l/m 2 min 0 min 0,0 UV-I 327 W/m 0,0 km/h (0 Bft)
22.05.2014 09:16 16,7 C 14,4 C 78 % 1007,7 hPa 0,0 l/m 0 min 0 min 0,0 UV-I 241 W/m 2,6 km/h (1 Bft)
22.05.2014 09:18 16,8 C 14,4 C 77 % 1007,7 hPa 0,0 l/m 0 min 0 min 0,0 UV-I 243 W/m 10,3 km/h (2 Bft)
22.05.2014 09:20 16,8 C 14,4 C 77 % 1007,5 hPa 0,0 l/m 2 min 0 min 0,0 UV-I 297 W/m 2,6 km/h (1 Bft)
22.05.2014 09:22 16,9 C 15,0 C 76 % 1007,5 hPa 0,0 l/m 2 min 0 min 0,5 UV-I 390 W/m 7,7 km/h (2 Bft)
22.05.2014 09:24 17,0 C 15,0 C 75 % 1007,5 hPa 0,0 l/m 2 min 0 min 0,0 UV-I 390 W/m 2,6 km/h (1 Bft)
22.05.2014 09:26 17,1 C 15,0 C 75 % 1007,6 hPa 0,0 l/m 0 min 0 min 0,0 UV-I 183 W/m 2,6 km/h (1 Bft)
22.05.2014 09:28 17,1 C 15,0 C 76 % 1007,5 hPa 0,0 l/m 2 min 0 min 0,6 UV-I 376 W/m 0,0 km/h (0 Bft)
22.05.2014 09:30 17,3 C 15,0 C 77 % 1007,7 hPa 0,0 l/m 2 min 0 min 0,5 UV-I 438 W/m 10,3 km/h (2 Bft)
22.05.2014 09:32 17,3 C 15,0 C 75 % 1007,8 hPa 0,0 l/m 0 min 0 min 0,0 UV-I 220 W/m 5,1 km/h (1 Bft)
22.05.2014 09:34 17,3 C 15,0 C 74 % 1007,7 hPa 0,0 l/m 0 min 0 min 1,0 UV-I 244 W/m 2,6 km/h (1 Bft)
22.05.2014 09:36 17,5 C 15,6 C 75 % 1007,8 hPa 0,0 l/m 2 min 0 min 0,9 UV-I 485 W/m 2,6 km/h (1 Bft)
22.05.2014 09:38 17,7 C 15,6 C 71 % 1007,7 hPa 0,0 l/m 2 min 0 min 0,7 UV-I 441 W/m 10,3 km/h (2 Bft)
22.05.2014 09:40 17,7 C 15,6 C 72 % 1007,8 hPa 0,0 l/m 2 min 0 min 0,7 UV-I 359 W/m 7,7 km/h (2 Bft)
22.05.2014 09:42 17,9 C 15,6 C 74 % 1007,7 hPa 0,0 l/m 2 min 0 min 0,8 UV-I 415 W/m 7,7 km/h (2 Bft)
22.05.2014 09:44 17,9 C 16,1 C 73 % 1007,7 hPa 0,0 l/m 2 min 0 min 0,7 UV-I 355 W/m 7,7 km/h (2 Bft)
22.05.2014 09:46 18,1 C 16,1 C 73 % 1007,8 hPa 0,0 l/m 0 min 0 min 0,7 UV-I 320 W/m 0,0 km/h (0 Bft)
22.05.2014 09:48 18,1 C 16,1 C 72 % 1007,7 hPa 0,0 l/m 2 min 0 min 0,8 UV-I 357 W/m 7,7 km/h (2 Bft)
22.05.2014 09:50 18,1 C 16,1 C 72 % 1007,5 hPa 0,0 l/m 2 min 0 min 0,8 UV-I 355 W/m 7,7 km/h (2 Bft)
22.05.2014 09:52 18,2 C 16,1 C 72 % 1007,5 hPa 0,0 l/m 2 min 0 min 0,9 UV-I 399 W/m 2,6 km/h (1 Bft)
22.05.2014 09:54 18,4 C 16,1 C 71 % 1007,7 hPa 0,0 l/m 0 min 0 min 0,7 UV-I 327 W/m 0,0 km/h (0 Bft)
22.05.2014 09:56 18,4 C 16,7 C 70 % 1007,7 hPa 0,0 l/m 2 min 0 min 0,7 UV-I 346 W/m 0,0 km/h (0 Bft)
22.05.2014 09:58 18,4 C 16,7 C 71 % 1007,6 hPa 0,0 l/m 0 min 0 min 0,8 UV-I 325 W/m 2,6 km/h (1 Bft)
22.05.2014 10:00 18,4 C 16,7 C 71 % 1007,7 hPa 0,0 l/m 0 min 0 min 0,7 UV-I 327 W/m 0,0 km/h (0 Bft)
22.05.2014 10:02 18,4 C 16,7 C 72 % 1007,6 hPa 0,0 l/m 0 min 0 min 0,8 UV-I 308 W/m 0,0 km/h (0 Bft)
22.05.2014 10:06 18,3 C 16,7 C 68 % 1007,8 hPa 0,0 l/m 0 min 0 min 0,8 UV-I 294 W/m 18,0 km/h (3 Bft)
22.05.2014 10:08 18,3 C 16,7 C 68 % 1007,8 hPa 0,0 l/m 0 min 0 min 0,9 UV-I 323 W/m 15,4 km/h (3 Bft)
22.05.2014 10:10 18,2 C 16,7 C 69 % 1007,8 hPa 0,0 l/m 0 min 0 min 1,2 UV-I 323 W/m 7,7 km/h (2 Bft)
22.05.2014 10:12 18,3 C 16,7 C 71 % 1007,8 hPa 0,0 l/m 2 min 0 min 1,0 UV-I 408 W/m 0,0 km/h (0 Bft)
22.05.2014 10:14 18,4 C 16,7 C 72 % 1007,8 hPa 0,0 l/m 2 min 0 min 1,1 UV-I 394 W/m 0,0 km/h (0 Bft)
22.05.2014 10:16 18,5 C 17,2 C 71 % 1007,8 hPa 0,0 l/m 2 min 0 min 1,1 UV-I 415 W/m 0,0 km/h (0 Bft)
22.05.2014 10:18 18,6 C 17,2 C 69 % 1007,9 hPa 0,0 l/m 0 min 0 min 0,7 UV-I 269 W/m 10,3 km/h (2 Bft)
22.05.2014 10:20 18,5 C 17,2 C 71 % 1008,0 hPa 0,0 l/m 0 min 0 min 0,8 UV-I 355 W/m 10,3 km/h (2 Bft)
22.05.2014 10:22 18,5 C 17,2 C 70 % 1007,8 hPa 0,0 l/m 0 min 0 min 1,5 UV-I 359 W/m 12,9 km/h (3 Bft)
22.05.2014 10:24 18,4 C 17,2 C 69 % 1007,8 hPa 0,0 l/m 2 min 0 min 1,3 UV-I 450 W/m 5,1 km/h (1 Bft)
22.05.2014 10:26 18,6 C 17,8 C 69 % 1007,6 hPa 0,0 l/m 2 min 0 min 1,1 UV-I 396 W/m 0,0 km/h (0 Bft)
22.05.2014 10:28 18,6 C 17,8 C 68 % 1007,6 hPa 0,0 l/m 2 min 0 min 1,1 UV-I 383 W/m 10,3 km/h (2 Bft)
22.05.2014 10:30 18,6 C 17,8 C 68 % 1007,7 hPa 0,0 l/m 0 min 0 min 1,0 UV-I 357 W/m 0,0 km/h (0 Bft)
22.05.2014 10:32 18,6 C 17,8 C 66 % 1007,8 hPa 0,0 l/m 2 min 0 min 0,9 UV-I 403 W/m 15,4 km/h (3 Bft)
22.05.2014 10:34 18,6 C 18,3 C 69 % 1007,8 hPa 0,0 l/m 2 min 0 min 1,0 UV-I 408 W/m 2,6 km/h (1 Bft)
22.05.2014 10:36 18,7 C 18,3 C 68 % 1007,8 hPa 0,0 l/m 0 min 0 min 0,7 UV-I 334 W/m 7,7 km/h (2 Bft)
22.05.2014 10:38 18,7 C 17,8 C 68 % 1007,7 hPa 0,0 l/m 0 min 0 min 0,6 UV-I 302 W/m 2,6 km/h (1 Bft)
22.05.2014 10:40 18,6 C 17,8 C 67 % 1007,8 hPa 0,0 l/m 0 min 0 min 0,6 UV-I 292 W/m 2,6 km/h (1 Bft)
22.05.2014 10:42 18,6 C 17,2 C 68 % 1007,8 hPa 0,0 l/m 0 min 2 min 0,7 UV-I 304 W/m 10,3 km/h (2 Bft)
22.05.2014 10:44 18,4 C 16,7 C 69 % 1007,8 hPa 0,0 l/m 0 min 2 min 0,9 UV-I 334 W/m 2,6 km/h (1 Bft)
22.05.2014 10:46 18,5 C 17,2 C 70 % 1007,8 hPa 0,0 l/m 0 min 0 min 1,0 UV-I 367 W/m 2,6 km/h (1 Bft)
22.05.2014 10:48 18,4 C 17,2 C 69 % 1007,9 hPa 0,0 l/m 0 min 0 min 0,9 UV-I 359 W/m 0,0 km/h (0 Bft)
22.05.2014 10:50 18,6 C 17,8 C 72 % 1008,0 hPa 0,0 l/m 0 min 0 min 0,8 UV-I 309 W/m 7,7 km/h (2 Bft)
22.05.2014 10:52 18,5 C 17,8 C 69 % 1008,0 hPa 0,0 l/m 0 min 0 min 1,0 UV-I 355 W/m 5,1 km/h (1 Bft)
22.05.2014 10:54 18,6 C 18,3 C 70 % 1007,9 hPa 0,0 l/m 2 min 0 min 1,2 UV-I 410 W/m 0,0 km/h (0 Bft)
22.05.2014 10:56 18,7 C 18,3 C 70 % 1007,9 hPa 0,0 l/m 0 min 0 min 1,0 UV-I 338 W/m 2,6 km/h (1 Bft)
22.05.2014 10:58 18,7 C 18,3 C 67 % 1007,8 hPa 0,0 l/m 0 min 0 min 1,3 UV-I 388 W/m 12,9 km/h (3 Bft)
22.05.2014 11:00 18,6 C 18,3 C 66 % 1007,8 hPa 0,0 l/m 2 min 0 min 1,7 UV-I 543 W/m 10,3 km/h (2 Bft)
22.05.2014 11:02 18,7 C 18,9 C 68 % 1007,8 hPa 0,0 l/m 2 min 0 min 1,7 UV-I 545 W/m 7,7 km/h (2 Bft)
22.05.2014 11:06 19,2 C 20,0 C 70 % 1007,9 hPa 0,0 l/m 2 min 0 min 1,5 UV-I 497 W/m 0,0 km/h (0 Bft)
22.05.2014 11:08 19,3 C 19,4 C 67 % 1007,9 hPa 0,0 l/m 2 min 0 min 1,3 UV-I 411 W/m 2,6 km/h (1 Bft)
22.05.2014 11:10 19,3 C 19,4 C 67 % 1008,0 hPa 0,0 l/m 0 min 0 min 1,3 UV-I 396 W/m 2,6 km/h (1 Bft)
22.05.2014 11:12 19,3 C 19,4 C 64 % 1008,1 hPa 0,0 l/m 0 min 0 min 1,3 UV-I 385 W/m 10,3 km/h (2 Bft)
22.05.2014 11:14 19,2 C 19,4 C 67 % 1008,1 hPa 0,0 l/m 2 min 0 min 1,5 UV-I 457 W/m 5,1 km/h (1 Bft)
22.05.2014 11:16 19,2 C 19,4 C 67 % 1008,0 hPa 0,0 l/m 2 min 0 min 2,2 UV-I 564 W/m 10,3 km/h (2 Bft)
22.05.2014 11:18 19,3 C 20,0 C 66 % 1008,1 hPa 0,0 l/m 2 min 2 min 2,2 UV-I 705 W/m 10,3 km/h (2 Bft)
22.05.2014 11:20 19,6 C 20,6 C 66 % 1008,0 hPa 0,0 l/m 2 min 0 min 1,8 UV-I 480 W/m 12,9 km/h (3 Bft)
22.05.2014 11:22 19,8 C 20,6 C 63 % 1008,0 hPa 0,0 l/m 2 min 0 min 2,2 UV-I 584 W/m 15,4 km/h (3 Bft)
22.05.2014 11:24 19,7 C 20,0 C 62 % 1008,1 hPa 0,0 l/m 0 min 2 min 1,5 UV-I 387 W/m 15,4 km/h (3 Bft)
22.05.2014 11:26 19,6 C 19,4 C 63 % 1008,2 hPa 0,0 l/m 0 min 0 min 1,4 UV-I 413 W/m 10,3 km/h (2 Bft)
22.05.2014 11:28 19,4 C 19,4 C 64 % 1008,1 hPa 0,0 l/m 0 min 0 min 1,3 UV-I 359 W/m 10,3 km/h (2 Bft)
22.05.2014 11:30 19,3 C 19,4 C 63 % 1008,1 hPa 0,0 l/m 0 min 0 min 1,2 UV-I 330 W/m 2,6 km/h (1 Bft)
22.05.2014 11:32 19,2 C 19,4 C 65 % 1008,0 hPa 0,0 l/m 0 min 0 min 1,2 UV-I 364 W/m 5,1 km/h (1 Bft)
22.05.2014 11:34 19,2 C 19,4 C 64 % 1008,0 hPa 0,0 l/m 0 min 0 min 1,3 UV-I 381 W/m 2,6 km/h (1 Bft)
22.05.2014 11:36 19,3 C 19,4 C 65 % 1007,9 hPa 0,0 l/m 0 min 0 min 1,3 UV-I 387 W/m 5,1 km/h (1 Bft)
22.05.2014 11:38 19,4 C 19,4 C 66 % 1008,0 hPa 0,0 l/m 2 min 0 min 1,7 UV-I 432 W/m 2,6 km/h (1 Bft)
22.05.2014 11:40 19,6 C 20,0 C 63 % 1008,1 hPa 0,0 l/m 2 min 0 min 2,0 UV-I 464 W/m 12,9 km/h (3 Bft)
22.05.2014 11:42 19,6 C 20,0 C 62 % 1008,1 hPa 0,0 l/m 2 min 0 min 2,2 UV-I 540 W/m 12,9 km/h (3 Bft)
22.05.2014 11:44 19,6 C 20,6 C 60 % 1008,2 hPa 0,0 l/m 2 min 0 min 1,8 UV-I 561 W/m 12,9 km/h (3 Bft)
22.05.2014 11:46 19,7 C 20,6 C 61 % 1008,2 hPa 0,0 l/m 2 min 0 min 1,6 UV-I 561 W/m 7,7 km/h (2 Bft)
22.05.2014 11:48 19,7 C 20,0 C 61 % 1008,1 hPa 0,0 l/m 0 min 0 min 1,5 UV-I 374 W/m 2,6 km/h (1 Bft)
22.05.2014 11:50 19,6 C 20,0 C 61 % 1008,0 hPa 0,0 l/m 0 min 0 min 2,0 UV-I 404 W/m 7,7 km/h (2 Bft)
22.05.2014 11:52 19,6 C 20,6 C 64 % 1008,0 hPa 0,0 l/m 2 min 0 min 3,2 UV-I 445 W/m 12,9 km/h (3 Bft)
22.05.2014 11:54 19,9 C 21,7 C 63 % 1007,9 hPa 0,0 l/m 2 min 0 min 2,2 UV-I 758 W/m 10,3 km/h (2 Bft)
22.05.2014 11:56 20,2 C 21,7 C 63 % 1007,9 hPa 0,0 l/m 2 min 0 min 2,4 UV-I 775 W/m 2,6 km/h (1 Bft)
22.05.2014 11:58 20,4 C 21,7 C 62 % 1007,8 hPa 0,0 l/m 2 min 0 min 2,2 UV-I 527 W/m 2,6 km/h (1 Bft)
22.05.2014 12:00 20,4 C 21,7 C 61 % 1007,9 hPa 0,0 l/m 0 min 0 min 2,0 UV-I 362 W/m 10,3 km/h (2 Bft)
22.05.2014 12:02 20,2 C 21,1 C 61 % 1007,9 hPa 0,0 l/m 0 min 0 min 1,4 UV-I 339 W/m 5,1 km/h (1 Bft)
22.05.2014 12:06 19,9 C 20,0 C 59 % 1008,0 hPa 0,0 l/m 0 min 0 min 1,3 UV-I 325 W/m 20,6 km/h (4 Bft)
22.05.2014 12:08 19,8 C 20,0 C 61 % 1008,0 hPa 0,0 l/m 0 min 0 min 1,2 UV-I 329 W/m 7,7 km/h (2 Bft)
22.05.2014 12:10 19,8 C 19,4 C 64 % 1008,1 hPa 0,0 l/m 0 min 0 min 1,2 UV-I 329 W/m 2,6 km/h (1 Bft)
22.05.2014 12:12 19,8 C 19,4 C 61 % 1008,0 hPa 0,0 l/m 0 min 0 min 1,1 UV-I 309 W/m 0,0 km/h (0 Bft)
22.05.2014 12:14 19,8 C 19,4 C 63 % 1008,0 hPa 0,0 l/m 0 min 0 min 1,2 UV-I 320 W/m 2,6 km/h (1 Bft)
22.05.2014 12:16 19,8 C 20,0 C 65 % 1008,0 hPa 0,0 l/m 0 min 0 min 1,3 UV-I 336 W/m 2,6 km/h (1 Bft)
22.05.2014 12:18 19,8 C 20,0 C 64 % 1008,1 hPa 0,0 l/m 0 min 0 min 1,8 UV-I 410 W/m 10,3 km/h (2 Bft)
22.05.2014 12:20 19,9 C 20,6 C 64 % 1008,2 hPa 0,0 l/m 2 min 0 min 3,3 UV-I 504 W/m 5,1 km/h (1 Bft)
22.05.2014 12:22 20,2 C 22,2 C 65 % 1008,2 hPa 0,0 l/m 2 min 0 min 3,9 UV-I 504 W/m 10,3 km/h (2 Bft)
22.05.2014 12:24 20,7 C 23,3 C 67 % 1008,1 hPa 0,0 l/m 2 min 0 min 2,9 UV-I 911 W/m 5,1 km/h (1 Bft)
22.05.2014 12:26 21,0 C 23,3 C 62 % 1008,2 hPa 0,0 l/m 2 min 0 min 2,3 UV-I 872 W/m 10,3 km/h (2 Bft)
22.05.2014 12:28 21,2 C 23,3 C 62 % 1008,2 hPa 0,0 l/m 2 min 0 min 3,8 UV-I 872 W/m 12,9 km/h (3 Bft)
22.05.2014 12:30 21,3 C 22,8 C 62 % 1008,3 hPa 0,0 l/m 2 min 0 min 2,1 UV-I 469 W/m 12,9 km/h (3 Bft)
22.05.2014 12:32 21,1 C 22,8 C 60 % 1008,2 hPa 0,0 l/m 2 min 0 min 3,2 UV-I 497 W/m 10,3 km/h (2 Bft)
22.05.2014 12:34 21,3 C 23,3 C 61 % 1008,2 hPa 0,0 l/m 2 min 0 min 2,6 UV-I 949 W/m 10,3 km/h (2 Bft)
22.05.2014 12:36 21,2 C 22,2 C 58 % 1008,1 hPa 0,0 l/m 0 min 0 min 1,8 UV-I 385 W/m 20,6 km/h (4 Bft)
22.05.2014 12:38 20,9 C 21,7 C 58 % 1008,2 hPa 0,0 l/m 0 min 0 min 1,7 UV-I 376 W/m 18,0 km/h (3 Bft)
22.05.2014 12:40 20,6 C 21,1 C 59 % 1008,3 hPa 0,0 l/m 0 min 0 min 1,6 UV-I 383 W/m 10,3 km/h (2 Bft)
22.05.2014 12:42 20,5 C 21,1 C 59 % 1008,3 hPa 0,0 l/m 0 min 0 min 1,7 UV-I 415 W/m 2,6 km/h (1 Bft)
22.05.2014 12:44 20,5 C 21,1 C 58 % 1008,2 hPa 0,0 l/m 0 min 0 min 1,9 UV-I 445 W/m 2,6 km/h (1 Bft)
22.05.2014 12:46 20,5 C 21,1 C 60 % 1008,1 hPa 0,0 l/m 2 min 0 min 2,0 UV-I 483 W/m 2,6 km/h (1 Bft)
22.05.2014 12:48 20,7 C 21,1 C 61 % 1008,1 hPa 0,0 l/m 2 min 0 min 2,4 UV-I 550 W/m 5,1 km/h (1 Bft)
22.05.2014 12:50 20,8 C 21,7 C 59 % 1008,0 hPa 0,0 l/m 2 min 0 min 2,7 UV-I 640 W/m 10,3 km/h (2 Bft)
22.05.2014 12:52 21,0 C 21,7 C 61 % 1007,9 hPa 0,0 l/m 2 min 0 min 2,7 UV-I 671 W/m 2,6 km/h (1 Bft)
22.05.2014 12:54 21,2 C 22,2 C 61 % 1007,8 hPa 0,0 l/m 2 min 0 min 3,1 UV-I 846 W/m 0,0 km/h (0 Bft)
22.05.2014 12:56 21,4 C 22,8 C 59 % 1007,8 hPa 0,0 l/m 2 min 0 min 2,7 UV-I 932 W/m 7,7 km/h (2 Bft)
22.05.2014 12:58 21,7 C 22,8 C 60 % 1007,8 hPa 0,0 l/m 2 min 0 min 2,8 UV-I 619 W/m 12,9 km/h (3 Bft)
22.05.2014 13:00 21,8 C 23,3 C 56 % 1007,7 hPa 0,0 l/m 2 min 0 min 2,4 UV-I 1007 W/m 10,3 km/h (2 Bft)
22.05.2014 13:02 22,1 C 23,3 C 59 % 1007,8 hPa 0,0 l/m 2 min 0 min 2,2 UV-I 1028 W/m 0,0 km/h (0 Bft)
22.05.2014 13:06 22,2 C 23,9 C 59 % 1007,8 hPa 0,0 l/m 2 min 0 min 2,5 UV-I 633 W/m 7,7 km/h (2 Bft)
22.05.2014 13:08 22,5 C 25,0 C 60 % 1007,9 hPa 0,0 l/m 2 min 0 min 2,4 UV-I 1016 W/m 12,9 km/h (3 Bft)
22.05.2014 13:10 22,8 C 24,4 C 56 % 1007,8 hPa 0,0 l/m 2 min 0 min 2,3 UV-I 577 W/m 12,9 km/h (3 Bft)
22.05.2014 13:12 22,7 C 23,9 C 55 % 1007,8 hPa 0,0 l/m 2 min 0 min 2,4 UV-I 564 W/m 10,3 km/h (2 Bft)
22.05.2014 13:14 22,6 C 23,3 C 58 % 1007,8 hPa 0,0 l/m 2 min 0 min 2,4 UV-I 520 W/m 7,7 km/h (2 Bft)
22.05.2014 13:16 22,3 C 23,3 C 56 % 1007,7 hPa 0,0 l/m 2 min 0 min 2,5 UV-I 571 W/m 12,9 km/h (3 Bft)
22.05.2014 13:18 22,1 C 22,8 C 56 % 1007,6 hPa 0,0 l/m 2 min 0 min 2,5 UV-I 524 W/m 12,9 km/h (3 Bft)
22.05.2014 13:20 22,0 C 22,8 C 58 % 1007,6 hPa 0,0 l/m 2 min 0 min 2,5 UV-I 524 W/m 10,3 km/h (2 Bft)
22.05.2014 13:22 22,2 C 23,3 C 59 % 1007,5 hPa 0,0 l/m 2 min 0 min 2,4 UV-I 524 W/m 12,9 km/h (3 Bft)
22.05.2014 13:24 22,4 C 23,3 C 58 % 1007,5 hPa 0,0 l/m 2 min 0 min 2,2 UV-I 898 W/m 10,3 km/h (2 Bft)
22.05.2014 13:26 22,6 C 23,3 C 58 % 1007,5 hPa 0,0 l/m 2 min 0 min 2,1 UV-I 898 W/m 12,9 km/h (3 Bft)
22.05.2014 13:28 22,7 C 22,8 C 58 % 1007,5 hPa 0,0 l/m 2 min 0 min 2,2 UV-I 898 W/m 12,9 km/h (3 Bft)
22.05.2014 13:30 22,7 C 22,8 C 58 % 1007,5 hPa 0,0 l/m 2 min 0 min 2,4 UV-I 466 W/m 7,7 km/h (2 Bft)
22.05.2014 13:32 22,6 C 22,8 C 56 % 1007,5 hPa 0,0 l/m 2 min 0 min 2,3 UV-I 592 W/m 10,3 km/h (2 Bft)
22.05.2014 13:34 22,4 C 22,8 C 57 % 1007,6 hPa 0,0 l/m 0 min 0 min 2,1 UV-I 396 W/m 7,7 km/h (2 Bft)
22.05.2014 13:36 22,3 C 22,8 C 59 % 1007,6 hPa 0,0 l/m 0 min 0 min 2,0 UV-I 401 W/m 7,7 km/h (2 Bft)
22.05.2014 13:38 22,3 C 22,8 C 59 % 1007,6 hPa 0,0 l/m 0 min 0 min 2,0 UV-I 413 W/m 5,1 km/h (1 Bft)
22.05.2014 13:40 22,3 C 22,8 C 57 % 1007,6 hPa 0,0 l/m 0 min 0 min 2,2 UV-I 439 W/m 0,0 km/h (0 Bft)
22.05.2014 13:42 22,2 C 22,8 C 57 % 1007,6 hPa 0,0 l/m 0 min 0 min 2,2 UV-I 455 W/m 2,6 km/h (1 Bft)
22.05.2014 13:44 22,1 C 22,8 C 58 % 1007,6 hPa 0,0 l/m 0 min 0 min 2,3 UV-I 452 W/m 2,6 km/h (1 Bft)
22.05.2014 13:46 22,0 C 22,8 C 56 % 1007,7 hPa 0,0 l/m 2 min 0 min 3,2 UV-I 475 W/m 2,6 km/h (1 Bft)
22.05.2014 13:48 22,2 C 22,8 C 58 % 1007,8 hPa 0,0 l/m 2 min 0 min 4,2 UV-I 761 W/m 10,3 km/h (2 Bft)
22.05.2014 13:50 22,4 C 23,3 C 57 % 1007,8 hPa 0,0 l/m 2 min 0 min 2,9 UV-I 761 W/m 7,7 km/h (2 Bft)
22.05.2014 13:52 22,6 C 23,3 C 58 % 1007,7 hPa 0,0 l/m 2 min 0 min 4,1 UV-I 552 W/m 7,7 km/h (2 Bft)
22.05.2014 13:54 22,7 C 23,3 C 57 % 1007,7 hPa 0,0 l/m 0 min 0 min 2,3 UV-I 417 W/m 7,7 km/h (2 Bft)
22.05.2014 13:56 22,6 C 23,3 C 58 % 1007,6 hPa 0,0 l/m 0 min 0 min 2,2 UV-I 417 W/m 12,9 km/h (3 Bft)
22.05.2014 13:58 22,6 C 23,3 C 58 % 1007,5 hPa 0,0 l/m 0 min 0 min 2,4 UV-I 411 W/m 5,1 km/h (1 Bft)
22.05.2014 14:00 22,7 C 24,4 C 59 % 1007,6 hPa 0,0 l/m 0 min 0 min 3,1 UV-I 411 W/m 2,6 km/h (1 Bft)
22.05.2014 14:02 23,1 C 24,4 C 57 % 1007,6 hPa 0,0 l/m 0 min 0 min 4,6 UV-I 411 W/m 12,9 km/h (3 Bft)
22.05.2014 14:06 23,2 C 23,9 C 55 % 1007,5 hPa 0,0 l/m 2 min 0 min 3,9 UV-I 958 W/m 10,3 km/h (2 Bft)
22.05.2014 14:08 23,2 C 23,3 C 54 % 1007,6 hPa 0,0 l/m 0 min 0 min 2,1 UV-I 364 W/m 7,7 km/h (2 Bft)
22.05.2014 14:10 23,1 C 23,3 C 58 % 1007,5 hPa 0,0 l/m 0 min 0 min 1,9 UV-I 353 W/m 5,1 km/h (1 Bft)
22.05.2014 14:12 23,1 C 23,3 C 56 % 1007,5 hPa 0,0 l/m 0 min 0 min 1,7 UV-I 325 W/m 10,3 km/h (2 Bft)
22.05.2014 14:14 22,8 C 22,8 C 55 % 1007,5 hPa 0,0 l/m 0 min 0 min 1,7 UV-I 353 W/m 2,6 km/h (1 Bft)
22.05.2014 14:16 22,8 C 22,8 C 58 % 1007,3 hPa 0,0 l/m 0 min 0 min 2,0 UV-I 399 W/m 2,6 km/h (1 Bft)
22.05.2014 14:18 22,8 C 22,8 C 58 % 1007,3 hPa 0,0 l/m 0 min 0 min 2,5 UV-I 446 W/m 2,6 km/h (1 Bft)
22.05.2014 14:20 22,9 C 22,8 C 55 % 1007,3 hPa 0,0 l/m 2 min 0 min 2,2 UV-I 482 W/m 0,0 km/h (0 Bft)
22.05.2014 14:22 22,9 C 22,8 C 56 % 1007,3 hPa 0,0 l/m 2 min 0 min 2,5 UV-I 490 W/m 2,6 km/h (1 Bft)
22.05.2014 14:24 23,1 C 23,3 C 56 % 1007,4 hPa 0,0 l/m 2 min 0 min 3,3 UV-I 490 W/m 2,6 km/h (1 Bft)
22.05.2014 14:26 23,3 C 23,9 C 56 % 1007,4 hPa 0,0 l/m 2 min 0 min 2,2 UV-I 476 W/m 12,9 km/h (3 Bft)
22.05.2014 14:28 23,4 C 23,3 C 56 % 1007,3 hPa 0,0 l/m 2 min 0 min 4,5 UV-I 501 W/m 10,3 km/h (2 Bft)
22.05.2014 14:30 23,5 C 23,9 C 56 % 1007,3 hPa 0,0 l/m 2 min 0 min 4,7 UV-I 1020 W/m 10,3 km/h (2 Bft)
22.05.2014 14:32 23,8 C 24,4 C 57 % 1007,3 hPa 0,0 l/m 2 min 0 min 2,5 UV-I 548 W/m 15,4 km/h (3 Bft)
22.05.2014 14:34 23,8 C 24,4 C 54 % 1007,3 hPa 0,0 l/m 2 min 0 min 3,5 UV-I 557 W/m 15,4 km/h (3 Bft)
22.05.2014 14:36 23,6 C 23,9 C 53 % 1007,3 hPa 0,0 l/m 2 min 0 min 4,4 UV-I 981 W/m 2,6 km/h (1 Bft)
22.05.2014 14:38 23,7 C 23,9 C 54 % 1007,3 hPa 0,0 l/m 0 min 0 min 2,1 UV-I 376 W/m 12,9 km/h (3 Bft)
22.05.2014 14:40 23,7 C 23,9 C 57 % 1007,3 hPa 0,0 l/m 2 min 0 min 2,4 UV-I 471 W/m 2,6 km/h (1 Bft)
22.05.2014 14:42 23,8 C 23,9 C 56 % 1007,3 hPa 0,0 l/m 2 min 0 min 2,2 UV-I 471 W/m 7,7 km/h (2 Bft)
22.05.2014 14:44 23,9 C 23,9 C 56 % 1007,3 hPa 0,0 l/m 0 min 0 min 2,1 UV-I 403 W/m 7,7 km/h (2 Bft)
22.05.2014 14:46 23,9 C 23,9 C 55 % 1007,4 hPa 0,0 l/m 0 min 0 min 2,2 UV-I 429 W/m 7,7 km/h (2 Bft)
22.05.2014 14:48 23,9 C 24,4 C 56 % 1007,4 hPa 0,0 l/m 2 min 0 min 4,3 UV-I 918 W/m 0,0 km/h (0 Bft)
22.05.2014 14:50 24,1 C 24,4 C 56 % 1007,4 hPa 0,0 l/m 0 min 0 min 2,0 UV-I 323 W/m 7,7 km/h (2 Bft)
22.05.2014 14:52 24,1 C 24,4 C 56 % 1007,4 hPa 0,0 l/m 0 min 0 min 1,8 UV-I 404 W/m 0,0 km/h (0 Bft)
22.05.2014 14:54 24,1 C 24,4 C 55 % 1007,3 hPa 0,0 l/m 0 min 0 min 1,9 UV-I 376 W/m 2,6 km/h (1 Bft)
22.05.2014 14:56 24,2 C 23,9 C 53 % 1007,3 hPa 0,0 l/m 0 min 0 min 1,6 UV-I 287 W/m 0,0 km/h (0 Bft)
22.05.2014 14:58 24,0 C 23,9 C 52 % 1007,3 hPa 0,0 l/m 0 min 0 min 1,5 UV-I 299 W/m 0,0 km/h (0 Bft)
22.05.2014 15:00 23,8 C 23,9 C 54 % 1007,2 hPa 0,0 l/m 0 min 0 min 1,7 UV-I 339 W/m 2,6 km/h (1 Bft)
22.05.2014 15:02 23,8 C 23,9 C 55 % 1007,1 hPa 0,0 l/m 0 min 0 min 2,6 UV-I 401 W/m 0,0 km/h (0 Bft)
22.05.2014 15:06 24,2 C 23,9 C 53 % 1007,2 hPa 0,0 l/m 0 min 0 min 3,5 UV-I 367 W/m 10,3 km/h (2 Bft)
22.05.2014 15:08 24,4 C 24,4 C 55 % 1007,2 hPa 0,0 l/m 2 min 0 min 2,2 UV-I 446 W/m 7,7 km/h (2 Bft)
22.05.2014 15:10 24,6 C 24,4 C 55 % 1007,2 hPa 0,0 l/m 2 min 0 min 1,8 UV-I 446 W/m 12,9 km/h (3 Bft)
22.05.2014 15:12 24,6 C 24,4 C 54 % 1007,1 hPa 0,0 l/m 0 min 0 min 1,4 UV-I 262 W/m 5,1 km/h (1 Bft)
22.05.2014 15:14 24,4 C 24,4 C 54 % 1007,1 hPa 0,0 l/m 0 min 0 min 1,3 UV-I 246 W/m 10,3 km/h (2 Bft)
22.05.2014 15:16 24,3 C 23,9 C 55 % 1007,0 hPa 0,0 l/m 0 min 0 min 1,3 UV-I 269 W/m 10,3 km/h (2 Bft)
22.05.2014 15:18 24,1 C 23,9 C 54 % 1006,9 hPa 0,0 l/m 0 min 0 min 1,3 UV-I 274 W/m 5,1 km/h (1 Bft)
22.05.2014 15:20 24,1 C 23,9 C 56 % 1006,9 hPa 0,0 l/m 0 min 0 min 1,1 UV-I 243 W/m 2,6 km/h (1 Bft)
22.05.2014 15:22 24,1 C 23,3 C 56 % 1006,9 hPa 0,0 l/m 0 min 0 min 1,0 UV-I 237 W/m 5,1 km/h (1 Bft)
22.05.2014 15:24 24,1 C 23,3 C 56 % 1006,9 hPa 0,0 l/m 0 min 0 min 1,1 UV-I 267 W/m 2,6 km/h (1 Bft)
22.05.2014 15:26 24,1 C 23,9 C 56 % 1006,8 hPa 0,0 l/m 0 min 0 min 1,2 UV-I 290 W/m 0,0 km/h (0 Bft)
22.05.2014 15:28 24,1 C 23,3 C 56 % 1006,9 hPa 0,0 l/m 0 min 0 min 1,5 UV-I 367 W/m 2,6 km/h (1 Bft)
22.05.2014 15:30 24,2 C 23,9 C 56 % 1006,8 hPa 0,0 l/m 2 min 0 min 3,1 UV-I 427 W/m 0,0 km/h (0 Bft)
22.05.2014 15:32 24,2 C 24,4 C 56 % 1006,8 hPa 0,0 l/m 2 min 0 min 2,7 UV-I 879 W/m 0,0 km/h (0 Bft)
22.05.2014 15:34 24,2 C 24,4 C 57 % 1006,7 hPa 0,0 l/m 2 min 0 min 2,4 UV-I 879 W/m 0,0 km/h (0 Bft)
22.05.2014 15:36 24,6 C 24,4 C 61 % 1006,8 hPa 0,0 l/m 2 min 0 min 2,7 UV-I 584 W/m 7,7 km/h (2 Bft)
22.05.2014 15:38 24,7 C 25,0 C 59 % 1006,7 hPa 0,0 l/m 2 min 0 min 2,4 UV-I 485 W/m 12,9 km/h (3 Bft)
22.05.2014 15:40 24,8 C 25,0 C 58 % 1006,8 hPa 0,0 l/m 0 min 0 min 2,1 UV-I 413 W/m 2,6 km/h (1 Bft)
22.05.2014 15:42 24,7 C 25,0 C 59 % 1006,8 hPa 0,0 l/m 0 min 0 min 1,9 UV-I 346 W/m 0,0 km/h (0 Bft)
22.05.2014 15:44 24,6 C 25,6 C 60 % 1006,8 hPa 0,0 l/m 2 min 0 min 1,9 UV-I 536 W/m 0,0 km/h (0 Bft)
22.05.2014 15:46 24,6 C 25,6 C 59 % 1006,8 hPa 0,0 l/m 0 min 0 min 1,7 UV-I 345 W/m 2,6 km/h (1 Bft)
22.05.2014 15:48 24,4 C 26,1 C 55 % 1006,8 hPa 0,0 l/m 2 min 0 min 2,5 UV-I 584 W/m 0,0 km/h (0 Bft)
22.05.2014 15:50 24,3 C 27,2 C 57 % 1006,8 hPa 0,0 l/m 2 min 0 min 2,9 UV-I 661 W/m 0,0 km/h (0 Bft)
22.05.2014 15:52 24,7 C 27,8 C 59 % 1006,8 hPa 0,0 l/m 2 min 0 min 2,5 UV-I 622 W/m 0,0 km/h (0 Bft)
22.05.2014 15:54 25,0 C 28,9 C 60 % 1006,8 hPa 0,0 l/m 2 min 0 min 3,0 UV-I 671 W/m 0,0 km/h (0 Bft)
22.05.2014 15:56 25,2 C 29,4 C 60 % 1006,9 hPa 0,0 l/m 2 min 0 min 2,9 UV-I 675 W/m 7,7 km/h (2 Bft)
22.05.2014 15:58 25,3 C 28,9 C 54 % 1006,9 hPa 0,0 l/m 2 min 0 min 2,7 UV-I 605 W/m 5,1 km/h (1 Bft)
22.05.2014 16:00 25,4 C 28,3 C 55 % 1006,9 hPa 0,0 l/m 0 min 0 min 1,9 UV-I 304 W/m 12,9 km/h (3 Bft)
22.05.2014 16:02 25,4 C 26,7 C 53 % 1006,9 hPa 0,0 l/m 0 min 0 min 1,9 UV-I 355 W/m 15,4 km/h (3 Bft)
22.05.2014 16:06 25,1 C 25,0 C 56 % 1007,1 hPa 0,0 l/m 0 min 0 min 1,3 UV-I 248 W/m 5,1 km/h (1 Bft)
22.05.2014 16:08 24,9 C 24,4 C 53 % 1007,2 hPa 0,0 l/m 2 min 0 min 1,9 UV-I 418 W/m 2,6 km/h (1 Bft)
22.05.2014 16:10 24,8 C 24,4 C 57 % 1007,2 hPa 0,0 l/m 2 min 0 min 1,8 UV-I 422 W/m 0,0 km/h (0 Bft)
22.05.2014 16:12 24,8 C 24,4 C 53 % 1007,1 hPa 0,0 l/m 2 min 0 min 1,7 UV-I 425 W/m 10,3 km/h (2 Bft)
22.05.2014 16:14 24,7 C 24,4 C 52 % 1007,1 hPa 0,0 l/m 0 min 0 min 1,6 UV-I 346 W/m 10,3 km/h (2 Bft)
22.05.2014 16:16 24,6 C 24,4 C 53 % 1007,1 hPa 0,0 l/m 0 min 0 min 1,5 UV-I 364 W/m 7,7 km/h (2 Bft)
22.05.2014 16:18 24,6 C 24,4 C 54 % 1007,2 hPa 0,0 l/m 0 min 0 min 1,4 UV-I 308 W/m 7,7 km/h (2 Bft)
22.05.2014 16:20 24,7 C 24,4 C 55 % 1007,2 hPa 0,0 l/m 0 min 0 min 1,4 UV-I 306 W/m 2,6 km/h (1 Bft)
22.05.2014 16:22 24,7 C 23,9 C 55 % 1007,3 hPa 0,0 l/m 0 min 0 min 1,3 UV-I 287 W/m 2,6 km/h (1 Bft)
22.05.2014 16:24 24,6 C 23,9 C 55 % 1007,3 hPa 0,0 l/m 0 min 0 min 1,2 UV-I 272 W/m 15,4 km/h (3 Bft)
22.05.2014 16:26 24,4 C 23,3 C 55 % 1007,3 hPa 0,0 l/m 0 min 0 min 1,1 UV-I 237 W/m 15,4 km/h (3 Bft)
22.05.2014 16:28 24,3 C 23,3 C 54 % 1007,1 hPa 0,0 l/m 0 min 0 min 1,0 UV-I 225 W/m 12,9 km/h (3 Bft)
22.05.2014 16:30 24,2 C 23,3 C 55 % 1007,0 hPa 0,0 l/m 0 min 0 min 0,9 UV-I 218 W/m 0,0 km/h (0 Bft)
22.05.2014 16:32 24,1 C 22,8 C 54 % 1007,0 hPa 0,0 l/m 0 min 0 min 0,8 UV-I 220 W/m 7,7 km/h (2 Bft)
22.05.2014 16:34 24,0 C 22,8 C 55 % 1007,0 hPa 0,0 l/m 0 min 0 min 0,8 UV-I 216 W/m 15,4 km/h (3 Bft)
22.05.2014 16:36 24,0 C 22,8 C 55 % 1007,0 hPa 0,0 l/m 0 min 0 min 0,7 UV-I 204 W/m 5,1 km/h (1 Bft)
22.05.2014 16:38 23,9 C 22,8 C 56 % 1007,0 hPa 0,0 l/m 0 min 0 min 0,6 UV-I 190 W/m 0,0 km/h (0 Bft)
22.05.2014 16:40 23,9 C 22,8 C 56 % 1007,0 hPa 0,0 l/m 0 min 0 min 0,5 UV-I 174 W/m 2,6 km/h (1 Bft)
22.05.2014 16:42 23,9 C 22,8 C 54 % 1007,0 hPa 0,0 l/m 0 min 0 min 0,0 UV-I 148 W/m 7,7 km/h (2 Bft)
22.05.2014 16:44 23,9 C 22,8 C 55 % 1007,0 hPa 0,0 l/m 0 min 0 min 0,0 UV-I 130 W/m 7,7 km/h (2 Bft)
22.05.2014 16:46 23,8 C 22,2 C 58 % 1006,9 hPa 0,0 l/m 0 min 0 min 0,0 UV-I 120 W/m 0,0 km/h (0 Bft)
22.05.2014 16:48 23,7 C 22,2 C 57 % 1007,0 hPa 0,0 l/m 0 min 0 min 0,0 UV-I 118 W/m 2,6 km/h (1 Bft)
22.05.2014 16:50 23,7 C 21,7 C 56 % 1006,9 hPa 0,0 l/m 0 min 0 min 0,0 UV-I 123 W/m 7,7 km/h (2 Bft)
22.05.2014 16:52 23,6 C 21,7 C 55 % 1006,9 hPa 0,0 l/m 0 min 0 min 0,0 UV-I 128 W/m 10,3 km/h (2 Bft)
22.05.2014 16:54 23,6 C 21,7 C 57 % 1006,8 hPa 0,0 l/m 0 min 0 min 0,0 UV-I 132 W/m 12,9 km/h (3 Bft)
22.05.2014 16:56 23,5 C 21,7 C 56 % 1006,9 hPa 0,0 l/m 0 min 0 min 0,0 UV-I 132 W/m 12,9 km/h (3 Bft)
22.05.2014 16:58 23,5 C 21,7 C 56 % 1006,9 hPa 0,0 l/m 0 min 0 min 0,0 UV-I 127 W/m 0,0 km/h (0 Bft)
22.05.2014 17:00 23,5 C 21,7 C 56 % 1007,0 hPa 0,0 l/m 0 min 0 min 0,0 UV-I 118 W/m 12,9 km/h (3 Bft)
22.05.2014 17:02 23,4 C 21,7 C 56 % 1007,0 hPa 0,0 l/m 0 min 0 min 0,0 UV-I 105 W/m 10,3 km/h (2 Bft)
22.05.2014 17:06 23,4 C 21,1 C 56 % 1007,2 hPa 0,0 l/m 0 min 0 min 0,0 UV-I 77 W/m 18,0 km/h (3 Bft)
22.05.2014 17:08 23,3 C 21,1 C 57 % 1007,1 hPa 0,0 l/m 0 min 2 min 0,0 UV-I 77 W/m 12,9 km/h (3 Bft)
22.05.2014 17:10 23,2 C 21,1 C 57 % 1007,2 hPa 0,0 l/m 0 min 2 min 0,0 UV-I 76 W/m 10,3 km/h (2 Bft)
22.05.2014 17:12 23,1 C 20,6 C 57 % 1007,5 hPa 0,0 l/m 0 min 2 min 0,0 UV-I 69 W/m 18,0 km/h (3 Bft)
22.05.2014 17:14 23,0 C 20,0 C 59 % 1007,4 hPa 0,0 l/m 0 min 2 min 0,0 UV-I 65 W/m 12,9 km/h (3 Bft)
22.05.2014 17:16 22,8 C 19,4 C 58 % 1007,5 hPa 0,0 l/m 0 min 2 min 0,0 UV-I 56 W/m 25,7 km/h (4 Bft)
22.05.2014 17:18 22,6 C 18,3 C 56 % 1007,7 hPa 0,0 l/m 0 min 2 min 0,0 UV-I 49 W/m 23,2 km/h (4 Bft)
22.05.2014 17:20 22,4 C 17,2 C 57 % 1007,9 hPa 0,0 l/m 0 min 2 min 0,0 UV-I 53 W/m 41,2 km/h (6 Bft)
22.05.2014 17:22 22,2 C 17,8 C 59 % 1008,0 hPa 0,0 l/m 0 min 2 min 0,0 UV-I 53 W/m 30,9 km/h (5 Bft)
22.05.2014 17:24 21,9 C 17,2 C 60 % 1008,2 hPa 0,0 l/m 0 min 2 min 0,0 UV-I 51 W/m 23,2 km/h (4 Bft)
22.05.2014 17:26 21,6 C 16,7 C 63 % 1008,4 hPa 0,0 l/m 0 min 2 min 0,0 UV-I 47 W/m 20,6 km/h (4 Bft)
22.05.2014 17:28 21,2 C 16,7 C 61 % 1008,5 hPa 0,0 l/m 0 min 2 min 0,0 UV-I 53 W/m 20,6 km/h (4 Bft)
22.05.2014 17:30 20,8 C 16,7 C 61 % 1008,9 hPa 0,0 l/m 0 min 2 min 0,0 UV-I 53 W/m 33,5 km/h (5 Bft)
22.05.2014 17:32 20,4 C 16,1 C 63 % 1009,0 hPa 0,0 l/m 0 min 2 min 0,0 UV-I 49 W/m 33,5 km/h (5 Bft)
22.05.2014 17:34 19,9 C 15,6 C 64 % 1009,0 hPa 0,0 l/m 0 min 2 min 0,0 UV-I 39 W/m 36,0 km/h (5 Bft)
22.05.2014 17:36 19,4 C 15,6 C 66 % 1009,0 hPa 0,0 l/m 0 min 2 min 0,0 UV-I 33 W/m 25,7 km/h (4 Bft)
22.05.2014 17:38 19,1 C 15,6 C 67 % 1009,0 hPa 0,0 l/m 0 min 2 min 0,0 UV-I 30 W/m 28,3 km/h (4 Bft)
22.05.2014 17:40 18,8 C 15,0 C 68 % 1009,2 hPa 0,0 l/m 0 min 2 min 0,0 UV-I 28 W/m 33,5 km/h (5 Bft)
22.05.2014 17:42 18,6 C 14,4 C 69 % 1009,0 hPa 0,2 l/m 0 min 2 min 0,0 UV-I 28 W/m 25,7 km/h (4 Bft)
22.05.2014 17:44 18,3 C 14,4 C 70 % 1009,1 hPa 0,0 l/m 0 min 2 min 0,0 UV-I 30 W/m 28,3 km/h (4 Bft)
22.05.2014 17:46 18,2 C 14,4 C 72 % 1009,0 hPa 0,0 l/m 0 min 2 min 0,0 UV-I 28 W/m 23,2 km/h (4 Bft)
22.05.2014 17:48 17,9 C 14,4 C 73 % 1009,0 hPa 0,0 l/m 0 min 2 min 0,0 UV-I 26 W/m 18,0 km/h (3 Bft)
22.05.2014 17:50 17,8 C 13,9 C 75 % 1009,2 hPa 0,0 l/m 0 min 2 min 0,0 UV-I 26 W/m 28,3 km/h (4 Bft)
22.05.2014 17:52 17,6 C 13,9 C 76 % 1009,3 hPa 0,2 l/m 0 min 2 min 0,0 UV-I 30 W/m 23,2 km/h (4 Bft)
22.05.2014 17:54 17,4 C 13,9 C 78 % 1009,4 hPa 0,0 l/m 0 min 2 min 0,0 UV-I 30 W/m 15,4 km/h (3 Bft)
22.05.2014 17:56 17,2 C 13,9 C 79 % 1009,4 hPa 0,2 l/m 0 min 2 min 0,0 UV-I 30 W/m 12,9 km/h (3 Bft)
22.05.2014 17:58 17,0 C 13,3 C 79 % 1009,3 hPa 0,2 l/m 0 min 2 min 0,0 UV-I 30 W/m 25,7 km/h (4 Bft)
22.05.2014 18:00 16,8 C 13,3 C 80 % 1009,3 hPa 0,0 l/m 0 min 2 min 0,0 UV-I 33 W/m 10,3 km/h (2 Bft)
22.05.2014 18:02 16,6 C 13,3 C 82 % 1009,0 hPa 0,2 l/m 0 min 2 min 0,0 UV-I 39 W/m 15,4 km/h (3 Bft)
22.05.2014 18:06 16,2 C 13,3 C 83 % 1008,7 hPa 0,4 l/m 0 min 2 min 0,0 UV-I 65 W/m 10,3 km/h (2 Bft)
22.05.2014 18:08 16,1 C 13,3 C 83 % 1008,8 hPa 0,0 l/m 0 min 2 min 0,0 UV-I 53 W/m 12,9 km/h (3 Bft)
22.05.2014 18:10 16,0 C 13,3 C 84 % 1008,8 hPa 0,0 l/m 0 min 2 min 0,0 UV-I 46 W/m 12,9 km/h (3 Bft)
22.05.2014 18:12 15,9 C 13,3 C 84 % 1008,5 hPa 0,0 l/m 0 min 2 min 0,0 UV-I 44 W/m 10,3 km/h (2 Bft)
22.05.2014 18:14 15,9 C 13,3 C 84 % 1008,5 hPa 0,0 l/m 0 min 2 min 0,0 UV-I 44 W/m 2,6 km/h (1 Bft)
22.05.2014 18:16 15,8 C 13,3 C 84 % 1008,5 hPa 0,0 l/m 0 min 2 min 0,0 UV-I 39 W/m 18,0 km/h (3 Bft)
22.05.2014 18:18 15,8 C 13,3 C 85 % 1008,4 hPa 0,0 l/m 0 min 2 min 0,0 UV-I 35 W/m 12,9 km/h (3 Bft)
22.05.2014 18:20 15,8 C 13,3 C 85 % 1008,4 hPa 0,0 l/m 0 min 2 min 0,0 UV-I 32 W/m 7,7 km/h (2 Bft)
22.05.2014 18:22 15,7 C 13,3 C 86 % 1008,4 hPa 0,0 l/m 0 min 2 min 0,0 UV-I 30 W/m 2,6 km/h (1 Bft)
22.05.2014 18:24 15,7 C 13,3 C 86 % 1008,4 hPa 0,0 l/m 0 min 2 min 0,0 UV-I 30 W/m 18,0 km/h (3 Bft)
22.05.2014 18:26 15,7 C 13,3 C 86 % 1008,2 hPa 0,0 l/m 0 min 2 min 0,0 UV-I 28 W/m 15,4 km/h (3 Bft)
22.05.2014 18:28 15,6 C 13,3 C 86 % 1008,1 hPa 0,2 l/m 0 min 2 min 0,0 UV-I 28 W/m 10,3 km/h (2 Bft)
22.05.2014 18:30 15,6 C 13,3 C 86 % 1008,1 hPa 0,0 l/m 0 min 2 min 0,0 UV-I 26 W/m 23,2 km/h (4 Bft)
22.05.2014 18:32 15,6 C 13,3 C 86 % 1008,0 hPa 0,0 l/m 0 min 2 min 0,0 UV-I 26 W/m 15,4 km/h (3 Bft)
22.05.2014 18:34 15,6 C 13,3 C 86 % 1007,9 hPa 0,0 l/m 0 min 2 min 0,0 UV-I 26 W/m 15,4 km/h (3 Bft)
22.05.2014 18:36 15,6 C 13,3 C 86 % 1007,7 hPa 0,0 l/m 0 min 2 min 0,0 UV-I 28 W/m 10,3 km/h (2 Bft)
22.05.2014 18:38 15,6 C 13,3 C 86 % 1007,5 hPa 0,0 l/m 0 min 2 min 0,0 UV-I 35 W/m 7,7 km/h (2 Bft)
22.05.2014 18:40 15,6 C 13,3 C 86 % 1007,4 hPa 0,0 l/m 0 min 2 min 0,0 UV-I 39 W/m 5,1 km/h (1 Bft)
22.05.2014 18:42 15,6 C 13,3 C 86 % 1007,4 hPa 0,0 l/m 0 min 2 min 0,0 UV-I 42 W/m 2,6 km/h (1 Bft)
22.05.2014 18:44 15,6 C 13,3 C 86 % 1007,3 hPa 0,0 l/m 0 min 2 min 0,0 UV-I 46 W/m 10,3 km/h (2 Bft)
22.05.2014 18:46 15,6 C 13,3 C 87 % 1007,2 hPa 0,0 l/m 0 min 2 min 0,0 UV-I 46 W/m 2,6 km/h (1 Bft)
22.05.2014 18:48 15,6 C 13,3 C 87 % 1007,2 hPa 0,0 l/m 0 min 2 min 0,0 UV-I 44 W/m 10,3 km/h (2 Bft)
22.05.2014 18:50 15,5 C 13,3 C 87 % 1007,3 hPa 0,0 l/m 0 min 2 min 0,0 UV-I 42 W/m 7,7 km/h (2 Bft)
22.05.2014 18:52 15,5 C 13,3 C 87 % 1007,3 hPa 0,0 l/m 0 min 0 min 0,0 UV-I 40 W/m 5,1 km/h (1 Bft)
22.05.2014 18:54 15,4 C 13,3 C 88 % 1007,4 hPa 0,0 l/m 0 min 0 min 0,0 UV-I 39 W/m 10,3 km/h (2 Bft)
22.05.2014 18:56 15,4 C 13,3 C 88 % 1007,3 hPa 0,0 l/m 0 min 0 min 0,0 UV-I 39 W/m 2,6 km/h (1 Bft)
22.05.2014 18:58 15,4 C 13,3 C 88 % 1007,4 hPa 0,0 l/m 0 min 0 min 0,0 UV-I 40 W/m 10,3 km/h (2 Bft)
22.05.2014 19:00 15,3 C 13,3 C 88 % 1007,4 hPa 0,0 l/m 0 min 0 min 0,0 UV-I 46 W/m 0,0 km/h (0 Bft)
22.05.2014 19:02 15,3 C 13,3 C 89 % 1007,4 hPa 0,0 l/m 0 min 0 min 0,0 UV-I 44 W/m 10,3 km/h (2 Bft)
22.05.2014 19:06 15,3 C 13,3 C 89 % 1007,6 hPa 0,0 l/m 0 min 0 min 0,0 UV-I 37 W/m 18,0 km/h (3 Bft)
22.05.2014 19:08 15,3 C 13,3 C 89 % 1007,6 hPa 0,0 l/m 0 min 0 min 0,0 UV-I 37 W/m 20,6 km/h (4 Bft)
22.05.2014 19:10 15,3 C 13,3 C 89 % 1007,6 hPa 0,0 l/m 0 min 0 min 0,0 UV-I 40 W/m 15,4 km/h (3 Bft)
22.05.2014 19:12 15,3 C 13,3 C 90 % 1007,5 hPa 0,0 l/m 0 min 2 min 0,0 UV-I 40 W/m 20,6 km/h (4 Bft)
22.05.2014 19:14 15,3 C 13,3 C 90 % 1007,5 hPa 0,0 l/m 0 min 0 min 0,0 UV-I 35 W/m 7,7 km/h (2 Bft)
22.05.2014 19:16 15,3 C 13,3 C 90 % 1007,5 hPa 0,0 l/m 0 min 0 min 0,0 UV-I 28 W/m 18,0 km/h (3 Bft)
22.05.2014 19:18 15,3 C 13,3 C 90 % 1007,4 hPa 0,0 l/m 0 min 0 min 0,0 UV-I 28 W/m 7,7 km/h (2 Bft)
22.05.2014 19:20 15,3 C 13,3 C 90 % 1007,4 hPa 0,0 l/m 0 min 0 min 0,0 UV-I 32 W/m 2,6 km/h (1 Bft)
22.05.2014 19:22 15,4 C 13,3 C 90 % 1007,3 hPa 0,0 l/m 0 min 0 min 0,0 UV-I 33 W/m 2,6 km/h (1 Bft)
22.05.2014 19:24 15,4 C 13,3 C 90 % 1007,4 hPa 0,0 l/m 0 min 0 min 0,0 UV-I 32 W/m 12,9 km/h (3 Bft)
22.05.2014 19:26 15,4 C 13,3 C 89 % 1007,4 hPa 0,0 l/m 0 min 2 min 0,0 UV-I 28 W/m 10,3 km/h (2 Bft)
22.05.2014 19:28 15,4 C 13,3 C 90 % 1007,4 hPa 0,0 l/m 0 min 2 min 0,0 UV-I 28 W/m 18,0 km/h (3 Bft)
22.05.2014 19:30 15,4 C 13,3 C 90 % 1007,5 hPa 0,0 l/m 0 min 2 min 0,0 UV-I 26 W/m 15,4 km/h (3 Bft)
22.05.2014 19:32 15,4 C 13,3 C 90 % 1007,6 hPa 0,0 l/m 0 min 2 min 0,0 UV-I 23 W/m 12,9 km/h (3 Bft)
22.05.2014 19:34 15,4 C 13,3 C 90 % 1007,5 hPa 0,0 l/m 0 min 0 min 0,0 UV-I 23 W/m 10,3 km/h (2 Bft)
22.05.2014 19:36 15,4 C 13,3 C 90 % 1007,5 hPa 0,0 l/m 0 min 2 min 0,0 UV-I 28 W/m 10,3 km/h (2 Bft)
22.05.2014 19:38 15,4 C 13,3 C 90 % 1007,5 hPa 0,0 l/m 0 min 0 min 0,0 UV-I 32 W/m 10,3 km/h (2 Bft)
22.05.2014 19:40 15,4 C 13,3 C 90 % 1007,7 hPa 0,0 l/m 0 min 2 min 0,0 UV-I 26 W/m 10,3 km/h (2 Bft)
22.05.2014 19:42 15,4 C 13,3 C 90 % 1007,8 hPa 0,0 l/m 0 min 2 min 0,0 UV-I 18 W/m 10,3 km/h (2 Bft)
22.05.2014 19:44 15,4 C 13,3 C 90 % 1007,9 hPa 0,0 l/m 0 min 2 min 0,0 UV-I 16 W/m 12,9 km/h (3 Bft)
22.05.2014 19:46 15,4 C 13,3 C 90 % 1007,9 hPa 0,0 l/m 0 min 0 min 0,0 UV-I 14 W/m 15,4 km/h (3 Bft)
22.05.2014 19:48 15,4 C 13,3 C 90 % 1008,0 hPa 0,0 l/m 0 min 0 min 0,0 UV-I 11 W/m 12,9 km/h (3 Bft)
22.05.2014 19:50 15,4 C 13,3 C 89 % 1008,0 hPa 0,0 l/m 0 min 0 min 0,0 UV-I 9 W/m 10,3 km/h (2 Bft)
22.05.2014 19:52 15,5 C 13,3 C 89 % 1008,0 hPa 0,0 l/m 0 min 0 min 0,0 UV-I 7 W/m 18,0 km/h (3 Bft)
22.05.2014 19:54 15,5 C 13,3 C 89 % 1008,1 hPa 0,0 l/m 0 min 0 min 0,0 UV-I 7 W/m 10,3 km/h (2 Bft)
22.05.2014 19:56 15,5 C 13,3 C 89 % 1008,1 hPa 0,0 l/m 0 min 2 min 0,0 UV-I 7 W/m 12,9 km/h (3 Bft)
22.05.2014 19:58 15,5 C 13,3 C 89 % 1008,1 hPa 0,0 l/m 0 min 2 min 0,0 UV-I 5 W/m 10,3 km/h (2 Bft)
22.05.2014 20:00 15,6 C 13,3 C 89 % 1008,1 hPa 0,0 l/m 0 min 2 min 0,0 UV-I 5 W/m 23,2 km/h (4 Bft)
22.05.2014 20:02 15,5 C 13,3 C 89 % 1008,1 hPa 0,0 l/m 0 min 2 min 0,0 UV-I 5 W/m 23,2 km/h (4 Bft)
22.05.2014 20:06 15,6 C 13,3 C 89 % 1008,3 hPa 0,0 l/m 0 min 2 min 0,0 UV-I 5 W/m 20,6 km/h (4 Bft)
22.05.2014 20:08 15,6 C 13,3 C 89 % 1008,3 hPa 0,0 l/m 0 min 2 min 0,0 UV-I 5 W/m 18,0 km/h (3 Bft)
22.05.2014 20:10 15,6 C 13,3 C 89 % 1008,5 hPa 0,0 l/m 0 min 2 min 0,0 UV-I 5 W/m 18,0 km/h (3 Bft)
22.05.2014 20:12 15,6 C 13,3 C 89 % 1008,5 hPa 0,0 l/m 0 min 2 min 0,0 UV-I 5 W/m 12,9 km/h (3 Bft)
22.05.2014 20:14 15,6 C 13,3 C 89 % 1008,6 hPa 0,0 l/m 0 min 2 min 0,0 UV-I 5 W/m 12,9 km/h (3 Bft)
22.05.2014 20:16 15,6 C 13,3 C 89 % 1008,6 hPa 0,0 l/m 0 min 0 min 0,0 UV-I 5 W/m 18,0 km/h (3 Bft)
22.05.2014 20:17 15,6 C 13,3 C 89 % 1008,7 hPa 0,0 l/m 0 min 1 min 0,0 UV-I 5 W/m 18,0 km/h (3 Bft)
22.05.2014 20:18 15,5 C 13,3 C 89 % 1008,7 hPa 0,0 l/m 0 min 1 min 0,0 UV-I 5 W/m 15,4 km/h (3 Bft)
22.05.2014 20:19 15,5 C 13,3 C 89 % 1008,7 hPa 0,0 l/m 0 min 1 min 0,0 UV-I 0 W/m 15,4 km/h (3 Bft)
22.05.2014 20:20 15,6 C 13,3 C 89 % 1008,8 hPa 0,0 l/m 0 min 1 min 0,0 UV-I 0 W/m 12,9 km/h (3 Bft)
22.05.2014 20:21 15,6 C 13,3 C 89 % 1008,8 hPa 0,0 l/m 0 min 1 min 0,0 UV-I 0 W/m 12,9 km/h (3 Bft)
22.05.2014 20:22 15,6 C 13,3 C 89 % 1008,7 hPa 0,0 l/m 0 min 1 min 0,0 UV-I 0 W/m 18,0 km/h (3 Bft)
22.05.2014 20:23 15,6 C 13,3 C 89 % 1008,7 hPa 0,2 l/m 0 min 1 min 0,0 UV-I 0 W/m 18,0 km/h (3 Bft)
22.05.2014 20:24 15,6 C 13,3 C 89 % 1008,7 hPa 0,0 l/m 0 min 1 min 0,0 UV-I 0 W/m 18,0 km/h (3 Bft)
22.05.2014 20:25 15,6 C 13,3 C 89 % 1008,7 hPa 0,0 l/m 0 min 1 min 0,0 UV-I 0 W/m 15,4 km/h (3 Bft)
22.05.2014 20:26 15,6 C 13,3 C 89 % 1008,7 hPa 0,0 l/m 0 min 1 min 0,0 UV-I 0 W/m 12,9 km/h (3 Bft)
22.05.2014 20:27 15,6 C 12,8 C 89 % 1008,6 hPa 0,0 l/m 0 min 1 min 0,0 UV-I 0 W/m 28,3 km/h (4 Bft)
22.05.2014 20:30 15,5 C 12,8 C 89 % 1008,6 hPa 0,0 l/m 0 min 2 min 0,0 UV-I 0 W/m 20,6 km/h (4 Bft)
22.05.2014 20:32 15,6 C 12,8 C 89 % 1008,5 hPa 0,0 l/m 0 min 2 min 0,0 UV-I 5 W/m 23,2 km/h (4 Bft)
22.05.2014 20:34 15,6 C 13,3 C 89 % 1008,4 hPa 0,2 l/m 0 min 2 min 0,0 UV-I 7 W/m 12,9 km/h (3 Bft)
22.05.2014 20:36 15,5 C 13,3 C 89 % 1008,4 hPa 0,0 l/m 0 min 2 min 0,0 UV-I 5 W/m 15,4 km/h (3 Bft)
22.05.2014 20:38 15,4 C 13,3 C 90 % 1008,3 hPa 0,0 l/m 0 min 2 min 0,0 UV-I 5 W/m 12,9 km/h (3 Bft)
22.05.2014 20:40 15,4 C 13,3 C 90 % 1008,4 hPa 0,0 l/m 0 min 2 min 0,0 UV-I 7 W/m 7,7 km/h (2 Bft)
22.05.2014 20:42 15,4 C 13,3 C 90 % 1008,4 hPa 0,0 l/m 0 min 2 min 0,0 UV-I 7 W/m 23,2 km/h (4 Bft)
22.05.2014 20:44 15,3 C 13,3 C 90 % 1008,4 hPa 0,0 l/m 0 min 2 min 0,0 UV-I 5 W/m 10,3 km/h (2 Bft)
22.05.2014 20:46 15,3 C 13,3 C 91 % 1008,4 hPa 0,0 l/m 0 min 2 min 0,0 UV-I 0 W/m 5,1 km/h (1 Bft)
22.05.2014 20:48 15,2 C 13,3 C 91 % 1008,4 hPa 0,0 l/m 0 min 2 min 0,0 UV-I 0 W/m 18,0 km/h (3 Bft)
22.05.2014 20:50 15,2 C 13,3 C 91 % 1008,5 hPa 0,0 l/m 0 min 2 min 0,0 UV-I 0 W/m 15,4 km/h (3 Bft)
22.05.2014 20:52 15,2 C 13,3 C 91 % 1008,5 hPa 0,0 l/m 0 min 0 min 0,0 UV-I 0 W/m 20,6 km/h (4 Bft)
22.05.2014 20:54 15,2 C 13,3 C 91 % 1008,4 hPa 0,0 l/m 0 min 0 min 0,0 UV-I 0 W/m 10,3 km/h (2 Bft)
22.05.2014 20:56 15,2 C 13,3 C 91 % 1008,4 hPa 0,0 l/m 0 min 2 min 0,0 UV-I 0 W/m 12,9 km/h (3 Bft)
22.05.2014 20:58 15,2 C 13,3 C 91 % 1008,4 hPa 0,0 l/m 0 min 0 min 0,0 UV-I 0 W/m 10,3 km/h (2 Bft)
22.05.2014 21:00 15,2 C 13,3 C 91 % 1008,4 hPa 0,0 l/m 0 min 2 min 0,0 UV-I 0 W/m 10,3 km/h (2 Bft)
22.05.2014 21:02 15,1 C 13,3 C 91 % 1008,3 hPa 0,0 l/m 0 min 2 min 0,0 UV-I 0 W/m 20,6 km/h (4 Bft)
22.05.2014 21:06 15,2 C 13,3 C 91 % 1008,3 hPa 0,0 l/m 0 min 2 min 0,0 UV-I 0 W/m 15,4 km/h (3 Bft)
22.05.2014 21:08 15,2 C 12,8 C 91 % 1008,2 hPa 0,0 l/m 0 min 2 min 0,0 UV-I 0 W/m 7,7 km/h (2 Bft)
22.05.2014 21:10 15,2 C 12,8 C 91 % 1008,3 hPa 0,0 l/m 0 min 2 min 0,0 UV-I 0 W/m 10,3 km/h (2 Bft)
22.05.2014 21:12 15,2 C 12,8 C 91 % 1008,3 hPa 0,0 l/m 0 min 2 min 0,0 UV-I 0 W/m 15,4 km/h (3 Bft)
22.05.2014 21:14 15,2 C 12,8 C 91 % 1008,3 hPa 0,0 l/m 0 min 2 min 0,0 UV-I 0 W/m 12,9 km/h (3 Bft)
22.05.2014 21:16 15,1 C 12,8 C 91 % 1008,3 hPa 0,0 l/m 0 min 2 min 0,0 UV-I 0 W/m 20,6 km/h (4 Bft)
22.05.2014 21:18 15,2 C 12,8 C 91 % 1008,4 hPa 0,0 l/m 0 min 2 min 0,0 UV-I 0 W/m 12,9 km/h (3 Bft)
22.05.2014 21:20 15,1 C 12,8 C 90 % 1008,4 hPa 0,0 l/m 0 min 2 min 0,0 UV-I 0 W/m 15,4 km/h (3 Bft)
22.05.2014 21:22 15,2 C 12,8 C 90 % 1008,5 hPa 0,0 l/m 0 min 2 min 0,0 UV-I 0 W/m 5,1 km/h (1 Bft)
22.05.2014 21:24 15,2 C 12,8 C 90 % 1008,6 hPa 0,0 l/m 0 min 2 min 0,0 UV-I 0 W/m 12,9 km/h (3 Bft)
22.05.2014 21:26 15,1 C 12,8 C 90 % 1008,7 hPa 0,0 l/m 0 min 2 min 0,0 UV-I 0 W/m 7,7 km/h (2 Bft)
22.05.2014 21:28 15,1 C 12,8 C 90 % 1008,7 hPa 0,0 l/m 0 min 2 min 0,0 UV-I 0 W/m 15,4 km/h (3 Bft)
22.05.2014 21:30 15,1 C 12,8 C 90 % 1008,7 hPa 0,0 l/m 0 min 2 min 0,0 UV-I 0 W/m 10,3 km/h (2 Bft)
22.05.2014 21:32 15,1 C 12,8 C 90 % 1008,6 hPa 0,0 l/m 0 min 2 min 0,0 UV-I 0 W/m 15,4 km/h (3 Bft)
22.05.2014 21:34 15,1 C 12,8 C 90 % 1008,4 hPa 0,0 l/m 0 min 2 min 0,0 UV-I 0 W/m 15,4 km/h (3 Bft)
22.05.2014 21:36 15,0 C 12,8 C 90 % 1008,4 hPa 0,0 l/m 0 min 2 min 0,0 UV-I 0 W/m 7,7 km/h (2 Bft)
22.05.2014 21:38 15,0 C 12,8 C 90 % 1008,4 hPa 0,0 l/m 0 min 2 min 0,0 UV-I 0 W/m 15,4 km/h (3 Bft)
22.05.2014 21:40 15,0 C 12,8 C 90 % 1008,3 hPa 0,2 l/m 0 min 2 min 0,0 UV-I 0 W/m 10,3 km/h (2 Bft)
22.05.2014 21:42 14,9 C 12,8 C 90 % 1008,3 hPa 0,0 l/m 0 min 2 min 0,0 UV-I 0 W/m 12,9 km/h (3 Bft)
22.05.2014 21:44 14,9 C 12,8 C 90 % 1008,1 hPa 0,0 l/m 0 min 2 min 0,0 UV-I 0 W/m 10,3 km/h (2 Bft)
22.05.2014 21:46 14,9 C 12,8 C 90 % 1008,0 hPa 0,0 l/m 0 min 2 min 0,0 UV-I 0 W/m 10,3 km/h (2 Bft)
22.05.2014 21:48 14,9 C 12,8 C 90 % 1007,9 hPa 0,0 l/m 0 min 2 min 0,0 UV-I 0 W/m 2,6 km/h (1 Bft)
22.05.2014 21:50 14,9 C 12,8 C 91 % 1007,8 hPa 0,0 l/m 0 min 0 min 0,0 UV-I 0 W/m 7,7 km/h (2 Bft)
22.05.2014 21:52 14,9 C 12,8 C 91 % 1007,9 hPa 0,0 l/m 0 min 2 min 0,0 UV-I 0 W/m 7,7 km/h (2 Bft)
22.05.2014 21:54 14,8 C 12,8 C 91 % 1008,1 hPa 0,0 l/m 0 min 2 min 0,0 UV-I 0 W/m 10,3 km/h (2 Bft)
22.05.2014 21:56 14,8 C 12,8 C 91 % 1008,2 hPa 0,0 l/m 0 min 2 min 0,0 UV-I 0 W/m 18,0 km/h (3 Bft)
22.05.2014 21:58 14,8 C 12,8 C 91 % 1008,4 hPa 0,0 l/m 0 min 2 min 0,0 UV-I 0 W/m 12,9 km/h (3 Bft)
22.05.2014 22:00 14,7 C 12,8 C 91 % 1008,5 hPa 0,0 l/m 0 min 2 min 0,0 UV-I 0 W/m 20,6 km/h (4 Bft)
22.05.2014 22:02 14,7 C 12,8 C 92 % 1008,6 hPa 0,0 l/m 0 min 0 min 0,0 UV-I 0 W/m 12,9 km/h (3 Bft)
22.05.2014 22:06 14,7 C 12,8 C 92 % 1008,2 hPa 0,0 l/m 0 min 2 min 0,0 UV-I 0 W/m 18,0 km/h (3 Bft)
22.05.2014 22:08 14,7 C 12,8 C 92 % 1008,2 hPa 0,0 l/m 0 min 2 min 0,0 UV-I 0 W/m 2,6 km/h (1 Bft)
22.05.2014 22:10 14,6 C 12,8 C 92 % 1008,1 hPa 0,0 l/m 0 min 2 min 0,0 UV-I 0 W/m 12,9 km/h (3 Bft)
22.05.2014 22:12 14,6 C 12,8 C 92 % 1007,9 hPa 0,0 l/m 0 min 2 min 0,0 UV-I 0 W/m 12,9 km/h (3 Bft)
22.05.2014 22:14 14,6 C 12,8 C 92 % 1007,9 hPa 0,0 l/m 0 min 2 min 0,0 UV-I 0 W/m 7,7 km/h (2 Bft)
22.05.2014 22:16 14,6 C 12,8 C 92 % 1007,8 hPa 0,0 l/m 0 min 2 min 0,0 UV-I 0 W/m 2,6 km/h (1 Bft)
22.05.2014 22:18 14,6 C 12,8 C 93 % 1007,9 hPa 0,0 l/m 0 min 2 min 0,0 UV-I 0 W/m 2,6 km/h (1 Bft)
22.05.2014 22:20 14,6 C 12,8 C 93 % 1008,1 hPa 0,0 l/m 0 min 2 min 0,0 UV-I 0 W/m 15,4 km/h (3 Bft)
22.05.2014 22:22 14,6 C 12,8 C 93 % 1008,3 hPa 0,0 l/m 0 min 2 min 0,0 UV-I 0 W/m 15,4 km/h (3 Bft)
22.05.2014 22:24 14,5 C 12,8 C 93 % 1008,5 hPa 0,2 l/m 0 min 2 min 0,0 UV-I 0 W/m 15,4 km/h (3 Bft)
22.05.2014 22:26 14,4 C 12,8 C 93 % 1008,7 hPa 0,0 l/m 0 min 2 min 0,0 UV-I 0 W/m 10,3 km/h (2 Bft)
22.05.2014 22:28 14,4 C 12,8 C 93 % 1008,8 hPa 0,0 l/m 0 min 2 min 0,0 UV-I 0 W/m 20,6 km/h (4 Bft)
22.05.2014 22:30 14,4 C 12,8 C 93 % 1009,0 hPa 0,0 l/m 0 min 2 min 0,0 UV-I 0 W/m 12,9 km/h (3 Bft)
22.05.2014 22:32 14,4 C 12,8 C 93 % 1009,2 hPa 0,0 l/m 0 min 2 min 0,0 UV-I 0 W/m 18,0 km/h (3 Bft)
22.05.2014 22:34 14,4 C 12,8 C 93 % 1009,3 hPa 0,0 l/m 0 min 2 min 0,0 UV-I 0 W/m 25,7 km/h (4 Bft)
22.05.2014 22:36 14,4 C 12,8 C 94 % 1009,4 hPa 0,2 l/m 0 min 2 min 0,0 UV-I 0 W/m 36,0 km/h (5 Bft)
22.05.2014 22:38 14,4 C 12,8 C 94 % 1009,3 hPa 0,0 l/m 0 min 2 min 0,0 UV-I 0 W/m 23,2 km/h (4 Bft)
22.05.2014 22:40 14,3 C 12,8 C 94 % 1009,3 hPa 0,0 l/m 0 min 2 min 0,0 UV-I 0 W/m 18,0 km/h (3 Bft)
22.05.2014 22:42 14,3 C 12,8 C 94 % 1009,3 hPa 0,2 l/m 0 min 2 min 0,0 UV-I 0 W/m 20,6 km/h (4 Bft)
22.05.2014 22:44 14,2 C 12,2 C 94 % 1009,3 hPa 0,0 l/m 0 min 2 min 0,0 UV-I 0 W/m 18,0 km/h (3 Bft)
22.05.2014 22:46 14,2 C 12,2 C 94 % 1009,3 hPa 0,0 l/m 0 min 2 min 0,0 UV-I 0 W/m 25,7 km/h (4 Bft)
22.05.2014 22:48 14,2 C 12,2 C 94 % 1009,2 hPa 0,2 l/m 0 min 2 min 0,0 UV-I 0 W/m 15,4 km/h (3 Bft)
22.05.2014 22:50 14,2 C 12,2 C 94 % 1009,1 hPa 0,0 l/m 0 min 2 min 0,0 UV-I 0 W/m 12,9 km/h (3 Bft)
22.05.2014 22:52 14,2 C 12,2 C 94 % 1009,1 hPa 0,2 l/m 0 min 2 min 0,0 UV-I 0 W/m 15,4 km/h (3 Bft)
22.05.2014 22:54 14,2 C 12,2 C 94 % 1009,0 hPa 0,0 l/m 0 min 2 min 0,0 UV-I 0 W/m 12,9 km/h (3 Bft)
22.05.2014 22:56 14,1 C 12,2 C 94 % 1008,9 hPa 0,0 l/m 0 min 2 min 0,0 UV-I 0 W/m 2,6 km/h (1 Bft)
22.05.2014 22:58 14,1 C 12,2 C 94 % 1008,7 hPa 0,0 l/m 0 min 2 min 0,0 UV-I 0 W/m 0,0 km/h (0 Bft)
22.05.2014 23:00 14,0 C 12,2 C 94 % 1008,6 hPa 0,2 l/m 0 min 2 min 0,0 UV-I 0 W/m 12,9 km/h (3 Bft)
22.05.2014 23:02 14,0 C 12,2 C 94 % 1008,5 hPa 0,0 l/m 0 min 2 min 0,0 UV-I 0 W/m 0,0 km/h (0 Bft)
22.05.2014 23:06 13,9 C 12,2 C 94 % 1008,4 hPa 0,0 l/m 0 min 2 min 0,0 UV-I 0 W/m 10,3 km/h (2 Bft)
22.05.2014 23:08 13,9 C 12,2 C 94 % 1008,5 hPa 0,0 l/m 0 min 2 min 0,0 UV-I 0 W/m 10,3 km/h (2 Bft)
22.05.2014 23:10 13,9 C 12,2 C 95 % 1008,6 hPa 0,0 l/m 0 min 2 min 0,0 UV-I 0 W/m 7,7 km/h (2 Bft)
22.05.2014 23:12 13,8 C 12,2 C 95 % 1008,7 hPa 0,0 l/m 0 min 2 min 0,0 UV-I 0 W/m 7,7 km/h (2 Bft)
22.05.2014 23:14 13,8 C 12,2 C 95 % 1008,9 hPa 0,0 l/m 0 min 2 min 0,0 UV-I 0 W/m 7,7 km/h (2 Bft)
22.05.2014 23:16 13,8 C 12,2 C 95 % 1009,0 hPa 0,0 l/m 0 min 2 min 0,0 UV-I 0 W/m 7,7 km/h (2 Bft)
22.05.2014 23:18 13,8 C 12,2 C 95 % 1009,0 hPa 0,0 l/m 0 min 2 min 0,0 UV-I 0 W/m 10,3 km/h (2 Bft)
22.05.2014 23:20 13,8 C 12,2 C 95 % 1008,9 hPa 0,0 l/m 0 min 2 min 0,0 UV-I 0 W/m 10,3 km/h (2 Bft)
22.05.2014 23:22 13,7 C 12,2 C 95 % 1008,9 hPa 0,0 l/m 0 min 2 min 0,0 UV-I 0 W/m 12,9 km/h (3 Bft)
22.05.2014 23:24 13,7 C 12,2 C 95 % 1008,9 hPa 0,0 l/m 0 min 2 min 0,0 UV-I 0 W/m 12,9 km/h (3 Bft)
22.05.2014 23:26 13,7 C 12,2 C 95 % 1008,9 hPa 0,0 l/m 0 min 0 min 0,0 UV-I 0 W/m 12,9 km/h (3 Bft)
22.05.2014 23:28 13,7 C 12,2 C 95 % 1008,8 hPa 0,0 l/m 0 min 0 min 0,0 UV-I 0 W/m 10,3 km/h (2 Bft)
22.05.2014 23:30 13,7 C 12,2 C 95 % 1008,6 hPa 0,0 l/m 0 min 2 min 0,0 UV-I 0 W/m 10,3 km/h (2 Bft)
22.05.2014 23:32 13,7 C 12,2 C 95 % 1008,5 hPa 0,0 l/m 0 min 2 min 0,0 UV-I 0 W/m 7,7 km/h (2 Bft)
22.05.2014 23:34 13,7 C 12,2 C 95 % 1008,6 hPa 0,2 l/m 0 min 2 min 0,0 UV-I 0 W/m 0,0 km/h (0 Bft)
22.05.2014 23:36 13,7 C 12,2 C 96 % 1008,6 hPa 0,0 l/m 0 min 2 min 0,0 UV-I 0 W/m 7,7 km/h (2 Bft)
22.05.2014 23:38 13,7 C 12,2 C 96 % 1008,6 hPa 0,0 l/m 0 min 2 min 0,0 UV-I 0 W/m 10,3 km/h (2 Bft)
22.05.2014 23:40 13,7 C 12,2 C 96 % 1008,5 hPa 0,0 l/m 0 min 2 min 0,0 UV-I 0 W/m 10,3 km/h (2 Bft)
22.05.2014 23:42 13,7 C 12,2 C 96 % 1008,5 hPa 0,0 l/m 0 min 2 min 0,0 UV-I 0 W/m 12,9 km/h (3 Bft)
22.05.2014 23:44 13,7 C 12,2 C 96 % 1008,4 hPa 0,0 l/m 0 min 0 min 0,0 UV-I 0 W/m 7,7 km/h (2 Bft)
22.05.2014 23:46 13,6 C 12,2 C 96 % 1008,3 hPa 0,0 l/m 0 min 0 min 0,0 UV-I 0 W/m 10,3 km/h (2 Bft)
22.05.2014 23:48 13,6 C 12,2 C 96 % 1008,4 hPa 0,0 l/m 0 min 0 min 0,0 UV-I 0 W/m 7,7 km/h (2 Bft)
22.05.2014 23:50 13,6 C 12,2 C 96 % 1008,5 hPa 0,0 l/m 0 min 0 min 0,0 UV-I 0 W/m 12,9 km/h (3 Bft)
22.05.2014 23:52 13,6 C 12,2 C 96 % 1008,5 hPa 0,0 l/m 0 min 0 min 0,0 UV-I 0 W/m 15,4 km/h (3 Bft)
22.05.2014 23:54 13,6 C 12,2 C 96 % 1008,5 hPa 0,0 l/m 0 min 0 min 0,0 UV-I 0 W/m 12,9 km/h (3 Bft)
22.05.2014 23:56 13,5 C 12,2 C 96 % 1008,5 hPa 0,0 l/m 0 min 0 min 0,0 UV-I 0 W/m 10,3 km/h (2 Bft)
22.05.2014 23:58 13,5 C 12,2 C 96 % 1008,4 hPa 0,0 l/m 0 min 0 min 0,0 UV-I 0 W/m 7,7 km/h (2 Bft)
_ Min-Zeit 23:56 22:44 14:58 01:10 - - - - - 00:30
Minimum _ 13,5 C 12,2 C 52 % 1002,7 hPa - - - - - 0,0 km/h (0 Bft)
_ Max-Zeit 16:02 15:56 23:36 17:54 18:06 09:10 01:46 14:30 13:02 01:48
Maximum _ 25,5 C 29,4 C 96 % 1009,4 hPa 0,4 l/m 2 min 2 min 4,7 UV-I 1028 W/m 43,8 km/h
S-SW (6 Bft)
Durchschnitt _ 18,6 C 17,0 C 76 % 1007,0 hPa #4,8 l/m #3:38 h #7:17 h 1,9 UV-I 255 W/m 8,6 km/h (2 Bft)
© 2014 W. Hausmann